Wetterdaten: Montag, 03.02.2014
Datum Zeit Temp. Aussen +5cm Feuchte Auss Luftdruck Regen Sonnenschein Regendauer UV Solar Windben
03.02.2014 00:00 1,4 C -0,6 C 92 % 1016,8 hPa 0,0 l/m 0 min 0 min 0,0 UV-I 0 W/m 0,0 km/h (0 Bft)
03.02.2014 00:02 1,3 C -0,6 C 92 % 1016,8 hPa 0,0 l/m 0 min 0 min 0,0 UV-I 0 W/m 0,0 km/h (0 Bft)
03.02.2014 00:04 1,3 C -0,6 C 92 % 1016,8 hPa 0,0 l/m 0 min 0 min 0,0 UV-I 0 W/m 0,0 km/h (0 Bft)
03.02.2014 00:06 1,2 C -0,6 C 92 % 1016,8 hPa 0,0 l/m 0 min 0 min 0,0 UV-I 0 W/m 0,0 km/h (0 Bft)
03.02.2014 00:08 1,2 C -0,6 C 92 % 1016,8 hPa 0,0 l/m 0 min 0 min 0,0 UV-I 0 W/m 0,0 km/h (0 Bft)
03.02.2014 00:10 1,2 C -0,6 C 92 % 1016,9 hPa 0,0 l/m 0 min 0 min 0,0 UV-I 0 W/m 0,0 km/h (0 Bft)
03.02.2014 00:12 1,2 C -0,6 C 92 % 1016,8 hPa 0,0 l/m 0 min 0 min 0,0 UV-I 0 W/m 0,0 km/h (0 Bft)
03.02.2014 00:14 1,2 C -0,6 C 92 % 1016,9 hPa 0,0 l/m 0 min 0 min 0,0 UV-I 0 W/m 0,0 km/h (0 Bft)
03.02.2014 00:16 1,1 C -0,6 C 92 % 1016,8 hPa 0,0 l/m 0 min 0 min 0,0 UV-I 0 W/m 0,0 km/h (0 Bft)
03.02.2014 00:18 1,1 C -1,1 C 92 % 1016,9 hPa 0,0 l/m 0 min 0 min 0,0 UV-I 0 W/m 2,6 km/h (1 Bft)
03.02.2014 00:20 1,1 C -1,1 C 92 % 1016,9 hPa 0,0 l/m 0 min 0 min 0,0 UV-I 0 W/m 0,0 km/h (0 Bft)
03.02.2014 00:22 1,0 C -1,1 C 92 % 1016,8 hPa 0,0 l/m 0 min 0 min 0,0 UV-I 0 W/m 0,0 km/h (0 Bft)
03.02.2014 00:24 1,0 C -1,1 C 92 % 1016,8 hPa 0,0 l/m 0 min 0 min 0,0 UV-I 0 W/m 2,6 km/h (1 Bft)
03.02.2014 00:26 1,0 C -1,1 C 93 % 1016,8 hPa 0,0 l/m 0 min 0 min 0,0 UV-I 0 W/m 0,0 km/h (0 Bft)
03.02.2014 00:28 1,0 C -1,1 C 93 % 1016,7 hPa 0,0 l/m 0 min 0 min 0,0 UV-I 0 W/m 0,0 km/h (0 Bft)
03.02.2014 00:30 0,9 C -1,1 C 93 % 1016,7 hPa 0,0 l/m 0 min 0 min 0,0 UV-I 0 W/m 2,6 km/h (1 Bft)
03.02.2014 00:32 0,9 C -1,1 C 93 % 1016,6 hPa 0,0 l/m 0 min 0 min 0,0 UV-I 0 W/m 10,3 km/h (2 Bft)
03.02.2014 00:34 0,9 C -1,1 C 93 % 1016,7 hPa 0,0 l/m 0 min 0 min 0,0 UV-I 0 W/m 5,1 km/h (1 Bft)
03.02.2014 00:36 0,9 C -1,1 C 93 % 1016,6 hPa 0,0 l/m 0 min 0 min 0,0 UV-I 0 W/m 7,7 km/h (2 Bft)
03.02.2014 00:38 0,9 C -0,6 C 93 % 1016,6 hPa 0,0 l/m 0 min 0 min 0,0 UV-I 0 W/m 7,7 km/h (2 Bft)
03.02.2014 00:40 0,9 C -1,1 C 93 % 1016,6 hPa 0,0 l/m 0 min 0 min 0,0 UV-I 0 W/m 7,7 km/h (2 Bft)
03.02.2014 00:42 0,9 C -1,1 C 93 % 1016,5 hPa 0,0 l/m 0 min 0 min 0,0 UV-I 0 W/m 2,6 km/h (1 Bft)
03.02.2014 00:44 0,9 C -1,1 C 93 % 1016,5 hPa 0,0 l/m 0 min 0 min 0,0 UV-I 0 W/m 7,7 km/h (2 Bft)
03.02.2014 00:46 0,9 C -1,1 C 93 % 1016,4 hPa 0,0 l/m 0 min 0 min 0,0 UV-I 0 W/m 5,1 km/h (1 Bft)
03.02.2014 00:48 0,8 C -1,1 C 93 % 1016,3 hPa 0,0 l/m 0 min 0 min 0,0 UV-I 0 W/m 2,6 km/h (1 Bft)
03.02.2014 00:50 0,8 C -1,1 C 93 % 1016,3 hPa 0,0 l/m 0 min 0 min 0,0 UV-I 0 W/m 10,3 km/h (2 Bft)
03.02.2014 00:52 0,8 C -1,1 C 93 % 1016,3 hPa 0,0 l/m 0 min 0 min 0,0 UV-I 0 W/m 10,3 km/h (2 Bft)
03.02.2014 00:54 0,8 C -1,1 C 93 % 1016,3 hPa 0,0 l/m 0 min 0 min 0,0 UV-I 0 W/m 7,7 km/h (2 Bft)
03.02.2014 00:56 0,8 C -0,6 C 93 % 1016,3 hPa 0,0 l/m 0 min 0 min 0,0 UV-I 0 W/m 10,3 km/h (2 Bft)
03.02.2014 00:58 0,8 C -1,1 C 93 % 1016,3 hPa 0,0 l/m 0 min 0 min 0,0 UV-I 0 W/m 5,1 km/h (1 Bft)
03.02.2014 01:00 0,8 C -1,1 C 93 % 1016,4 hPa 0,0 l/m 0 min 0 min 0,0 UV-I 0 W/m 5,1 km/h (1 Bft)
03.02.2014 01:02 0,8 C -1,1 C 93 % 1016,4 hPa 0,0 l/m 0 min 0 min 0,0 UV-I 0 W/m 0,0 km/h (0 Bft)
03.02.2014 01:04 0,7 C -1,1 C 93 % 1016,4 hPa 0,0 l/m 0 min 0 min 0,0 UV-I 0 W/m 0,0 km/h (0 Bft)
03.02.2014 01:06 0,7 C -1,1 C 93 % 1016,4 hPa 0,0 l/m 0 min 0 min 0,0 UV-I 0 W/m 2,6 km/h (1 Bft)
03.02.2014 01:08 0,7 C -1,1 C 93 % 1016,4 hPa 0,0 l/m 0 min 0 min 0,0 UV-I 0 W/m 2,6 km/h (1 Bft)
03.02.2014 01:10 0,7 C -1,1 C 93 % 1016,3 hPa 0,0 l/m 0 min 0 min 0,0 UV-I 0 W/m 5,1 km/h (1 Bft)
03.02.2014 01:12 0,7 C -1,1 C 93 % 1016,3 hPa 0,0 l/m 0 min 0 min 0,0 UV-I 0 W/m 5,1 km/h (1 Bft)
03.02.2014 01:14 0,7 C -1,1 C 93 % 1016,3 hPa 0,0 l/m 0 min 0 min 0,0 UV-I 0 W/m 2,6 km/h (1 Bft)
03.02.2014 01:16 0,7 C -1,1 C 93 % 1016,3 hPa 0,0 l/m 0 min 0 min 0,0 UV-I 0 W/m 0,0 km/h (0 Bft)
03.02.2014 01:18 0,7 C -1,1 C 93 % 1016,3 hPa 0,0 l/m 0 min 0 min 0,0 UV-I 0 W/m 0,0 km/h (0 Bft)
03.02.2014 01:20 0,7 C -1,1 C 93 % 1016,3 hPa 0,0 l/m 0 min 0 min 0,0 UV-I 0 W/m 0,0 km/h (0 Bft)
03.02.2014 01:22 0,7 C -1,1 C 93 % 1016,2 hPa 0,0 l/m 0 min 0 min 0,0 UV-I 0 W/m 0,0 km/h (0 Bft)
03.02.2014 01:24 0,6 C -1,1 C 93 % 1016,3 hPa 0,0 l/m 0 min 0 min 0,0 UV-I 0 W/m 0,0 km/h (0 Bft)
03.02.2014 01:26 0,6 C -1,1 C 93 % 1016,2 hPa 0,0 l/m 0 min 0 min 0,0 UV-I 0 W/m 0,0 km/h (0 Bft)
03.02.2014 01:28 0,6 C -1,1 C 94 % 1016,2 hPa 0,0 l/m 0 min 0 min 0,0 UV-I 0 W/m 0,0 km/h (0 Bft)
03.02.2014 01:30 0,5 C -1,7 C 94 % 1016,1 hPa 0,0 l/m 0 min 0 min 0,0 UV-I 0 W/m 0,0 km/h (0 Bft)
03.02.2014 01:32 0,5 C -1,7 C 94 % 1016,2 hPa 0,0 l/m 0 min 0 min 0,0 UV-I 0 W/m 0,0 km/h (0 Bft)
03.02.2014 01:34 0,5 C -1,7 C 94 % 1016,3 hPa 0,0 l/m 0 min 0 min 0,0 UV-I 0 W/m 0,0 km/h (0 Bft)
03.02.2014 01:36 0,5 C -1,7 C 94 % 1016,2 hPa 0,0 l/m 0 min 0 min 0,0 UV-I 0 W/m 0,0 km/h (0 Bft)
03.02.2014 01:38 0,4 C -1,7 C 94 % 1016,2 hPa 0,0 l/m 0 min 0 min 0,0 UV-I 0 W/m 0,0 km/h (0 Bft)
03.02.2014 01:40 0,4 C -1,7 C 94 % 1016,1 hPa 0,0 l/m 0 min 0 min 0,0 UV-I 0 W/m 0,0 km/h (0 Bft)
03.02.2014 01:42 0,3 C -1,7 C 94 % 1016,1 hPa 0,0 l/m 0 min 0 min 0,0 UV-I 0 W/m 0,0 km/h (0 Bft)
03.02.2014 01:44 0,3 C -1,7 C 94 % 1016,0 hPa 0,0 l/m 0 min 0 min 0,0 UV-I 0 W/m 0,0 km/h (0 Bft)
03.02.2014 01:46 0,3 C -1,7 C 94 % 1016,1 hPa 0,0 l/m 0 min 0 min 0,0 UV-I 0 W/m 0,0 km/h (0 Bft)
03.02.2014 01:48 0,3 C -1,7 C 94 % 1016,1 hPa 0,0 l/m 0 min 0 min 0,0 UV-I 0 W/m 2,6 km/h (1 Bft)
03.02.2014 01:50 0,2 C -1,7 C 94 % 1016,1 hPa 0,0 l/m 0 min 0 min 0,0 UV-I 0 W/m 0,0 km/h (0 Bft)
03.02.2014 01:52 0,2 C -1,7 C 94 % 1016,2 hPa 0,0 l/m 0 min 0 min 0,0 UV-I 0 W/m 0,0 km/h (0 Bft)
03.02.2014 01:54 0,2 C -1,7 C 94 % 1016,2 hPa 0,0 l/m 0 min 0 min 0,0 UV-I 0 W/m 0,0 km/h (0 Bft)
03.02.2014 01:56 0,2 C -1,7 C 94 % 1016,3 hPa 0,0 l/m 0 min 0 min 0,0 UV-I 0 W/m 0,0 km/h (0 Bft)
03.02.2014 01:58 0,2 C -1,7 C 94 % 1016,3 hPa 0,0 l/m 0 min 0 min 0,0 UV-I 0 W/m 0,0 km/h (0 Bft)
03.02.2014 02:00 0,2 C -1,7 C 94 % 1016,3 hPa 0,0 l/m 0 min 0 min 0,0 UV-I 0 W/m 0,0 km/h (0 Bft)
03.02.2014 02:02 0,2 C -2,2 C 94 % 1016,2 hPa 0,0 l/m 0 min 0 min 0,0 UV-I 0 W/m 0,0 km/h (0 Bft)
03.02.2014 02:04 0,2 C -2,2 C 94 % 1016,2 hPa 0,0 l/m 0 min 0 min 0,0 UV-I 0 W/m 0,0 km/h (0 Bft)
03.02.2014 02:06 0,2 C -2,2 C 94 % 1016,2 hPa 0,0 l/m 0 min 0 min 0,0 UV-I 0 W/m 2,6 km/h (1 Bft)
03.02.2014 02:08 0,2 C -2,2 C 94 % 1016,3 hPa 0,0 l/m 0 min 0 min 0,0 UV-I 0 W/m 0,0 km/h (0 Bft)
03.02.2014 02:10 0,2 C -2,2 C 94 % 1016,2 hPa 0,0 l/m 0 min 0 min 0,0 UV-I 0 W/m 0,0 km/h (0 Bft)
03.02.2014 02:12 0,2 C -2,2 C 94 % 1016,3 hPa 0,0 l/m 0 min 0 min 0,0 UV-I 0 W/m 0,0 km/h (0 Bft)
03.02.2014 02:14 0,1 C -2,2 C 94 % 1016,2 hPa 0,0 l/m 0 min 0 min 0,0 UV-I 0 W/m 0,0 km/h (0 Bft)
03.02.2014 02:16 0,1 C -2,2 C 94 % 1016,3 hPa 0,0 l/m 0 min 0 min 0,0 UV-I 0 W/m 0,0 km/h (0 Bft)
03.02.2014 02:18 0,1 C -2,2 C 94 % 1016,2 hPa 0,0 l/m 0 min 0 min 0,0 UV-I 0 W/m 0,0 km/h (0 Bft)
03.02.2014 02:20 0,1 C -2,2 C 94 % 1016,2 hPa 0,0 l/m 0 min 0 min 0,0 UV-I 0 W/m 0,0 km/h (0 Bft)
03.02.2014 02:22 0,0 C -2,2 C 94 % 1016,2 hPa 0,0 l/m 0 min 0 min 0,0 UV-I 0 W/m 0,0 km/h (0 Bft)
03.02.2014 02:24 -0,1 C -2,2 C 94 % 1016,3 hPa 0,0 l/m 0 min 0 min 0,0 UV-I 0 W/m 0,0 km/h (0 Bft)
03.02.2014 02:26 -0,1 C -2,2 C 94 % 1016,3 hPa 0,0 l/m 0 min 0 min 0,0 UV-I 0 W/m 0,0 km/h (0 Bft)
03.02.2014 02:28 -0,1 C -2,2 C 94 % 1016,3 hPa 0,0 l/m 0 min 0 min 0,0 UV-I 0 W/m 0,0 km/h (0 Bft)
03.02.2014 02:30 -0,2 C -2,2 C 95 % 1016,3 hPa 0,0 l/m 0 min 0 min 0,0 UV-I 0 W/m 0,0 km/h (0 Bft)
03.02.2014 02:32 -0,2 C -2,2 C 95 % 1016,4 hPa 0,0 l/m 0 min 0 min 0,0 UV-I 0 W/m 0,0 km/h (0 Bft)
03.02.2014 02:34 -0,2 C -2,2 C 95 % 1016,2 hPa 0,0 l/m 0 min 0 min 0,0 UV-I 0 W/m 0,0 km/h (0 Bft)
03.02.2014 02:36 -0,2 C -2,2 C 95 % 1016,3 hPa 0,0 l/m 0 min 0 min 0,0 UV-I 0 W/m 0,0 km/h (0 Bft)
03.02.2014 02:38 -0,2 C -2,2 C 95 % 1016,3 hPa 0,0 l/m 0 min 0 min 0,0 UV-I 0 W/m 0,0 km/h (0 Bft)
03.02.2014 02:40 -0,2 C -2,2 C 95 % 1016,3 hPa 0,0 l/m 0 min 0 min 0,0 UV-I 0 W/m 0,0 km/h (0 Bft)
03.02.2014 02:42 -0,1 C -2,2 C 95 % 1016,4 hPa 0,0 l/m 0 min 0 min 0,0 UV-I 0 W/m 0,0 km/h (0 Bft)
03.02.2014 02:44 -0,1 C -2,2 C 95 % 1016,4 hPa 0,0 l/m 0 min 0 min 0,0 UV-I 0 W/m 0,0 km/h (0 Bft)
03.02.2014 02:46 -0,2 C -2,2 C 95 % 1016,4 hPa 0,0 l/m 0 min 0 min 0,0 UV-I 0 W/m 0,0 km/h (0 Bft)
03.02.2014 02:48 -0,2 C -2,2 C 95 % 1016,4 hPa 0,0 l/m 0 min 0 min 0,0 UV-I 0 W/m 0,0 km/h (0 Bft)
03.02.2014 02:50 -0,3 C -2,8 C 95 % 1016,4 hPa 0,0 l/m 0 min 0 min 0,0 UV-I 0 W/m 0,0 km/h (0 Bft)
03.02.2014 02:52 -0,3 C -2,8 C 95 % 1016,4 hPa 0,0 l/m 0 min 0 min 0,0 UV-I 0 W/m 0,0 km/h (0 Bft)
03.02.2014 02:54 -0,3 C -2,8 C 95 % 1016,4 hPa 0,0 l/m 0 min 0 min 0,0 UV-I 0 W/m 0,0 km/h (0 Bft)
03.02.2014 02:56 -0,3 C -2,8 C 95 % 1016,4 hPa 0,0 l/m 0 min 0 min 0,0 UV-I 0 W/m 0,0 km/h (0 Bft)
03.02.2014 02:58 -0,3 C -2,8 C 95 % 1016,5 hPa 0,0 l/m 0 min 0 min 0,0 UV-I 0 W/m 0,0 km/h (0 Bft)
03.02.2014 03:00 -0,3 C -2,8 C 95 % 1016,4 hPa 0,0 l/m 0 min 0 min 0,0 UV-I 0 W/m 0,0 km/h (0 Bft)
03.02.2014 03:02 -0,3 C -2,8 C 95 % 1016,4 hPa 0,0 l/m 0 min 0 min 0,0 UV-I 0 W/m 0,0 km/h (0 Bft)
03.02.2014 03:04 -0,4 C -2,8 C 95 % 1016,4 hPa 0,0 l/m 0 min 0 min 0,0 UV-I 0 W/m 0,0 km/h (0 Bft)
03.02.2014 03:06 -0,4 C -2,8 C 95 % 1016,4 hPa 0,0 l/m 0 min 0 min 0,0 UV-I 0 W/m 0,0 km/h (0 Bft)
03.02.2014 03:08 -0,4 C -2,8 C 95 % 1016,4 hPa 0,0 l/m 0 min 0 min 0,0 UV-I 0 W/m 0,0 km/h (0 Bft)
03.02.2014 03:10 -0,4 C -2,8 C 95 % 1016,5 hPa 0,0 l/m 0 min 0 min 0,0 UV-I 0 W/m 0,0 km/h (0 Bft)
03.02.2014 03:12 -0,4 C -2,8 C 95 % 1016,4 hPa 0,0 l/m 0 min 0 min 0,0 UV-I 0 W/m 0,0 km/h (0 Bft)
03.02.2014 03:14 -0,4 C -2,8 C 95 % 1016,4 hPa 0,0 l/m 0 min 0 min 0,0 UV-I 0 W/m 0,0 km/h (0 Bft)
03.02.2014 03:16 -0,4 C -2,8 C 95 % 1016,4 hPa 0,0 l/m 0 min 0 min 0,0 UV-I 0 W/m 0,0 km/h (0 Bft)
03.02.2014 03:18 -0,5 C -2,8 C 95 % 1016,4 hPa 0,0 l/m 0 min 0 min 0,0 UV-I 0 W/m 0,0 km/h (0 Bft)
03.02.2014 03:20 -0,5 C -2,8 C 95 % 1016,4 hPa 0,0 l/m 0 min 0 min 0,0 UV-I 0 W/m 0,0 km/h (0 Bft)
03.02.2014 03:22 -0,5 C -2,8 C 95 % 1016,4 hPa 0,0 l/m 0 min 0 min 0,0 UV-I 0 W/m 0,0 km/h (0 Bft)
03.02.2014 03:24 -0,5 C -2,8 C 95 % 1016,4 hPa 0,0 l/m 0 min 0 min 0,0 UV-I 0 W/m 0,0 km/h (0 Bft)
03.02.2014 03:26 -0,5 C -2,8 C 95 % 1016,3 hPa 0,0 l/m 0 min 0 min 0,0 UV-I 0 W/m 0,0 km/h (0 Bft)
03.02.2014 03:28 -0,6 C -2,8 C 95 % 1016,3 hPa 0,0 l/m 0 min 0 min 0,0 UV-I 0 W/m 0,0 km/h (0 Bft)
03.02.2014 03:30 -0,6 C -2,8 C 95 % 1016,2 hPa 0,0 l/m 0 min 0 min 0,0 UV-I 0 W/m 0,0 km/h (0 Bft)
03.02.2014 03:32 -0,6 C -2,8 C 95 % 1016,3 hPa 0,0 l/m 0 min 0 min 0,0 UV-I 0 W/m 0,0 km/h (0 Bft)
03.02.2014 03:34 -0,6 C -2,8 C 95 % 1016,2 hPa 0,0 l/m 0 min 0 min 0,0 UV-I 0 W/m 0,0 km/h (0 Bft)
03.02.2014 03:36 -0,7 C -2,8 C 95 % 1016,2 hPa 0,0 l/m 0 min 0 min 0,0 UV-I 0 W/m 0,0 km/h (0 Bft)
03.02.2014 03:38 -0,7 C -2,8 C 95 % 1016,2 hPa 0,0 l/m 0 min 0 min 0,0 UV-I 0 W/m 0,0 km/h (0 Bft)
03.02.2014 03:40 -0,7 C -2,8 C 95 % 1016,2 hPa 0,0 l/m 0 min 0 min 0,0 UV-I 0 W/m 0,0 km/h (0 Bft)
03.02.2014 03:42 -0,6 C -2,8 C 95 % 1016,1 hPa 0,0 l/m 0 min 0 min 0,0 UV-I 0 W/m 0,0 km/h (0 Bft)
03.02.2014 03:44 -0,6 C -2,8 C 96 % 1016,1 hPa 0,0 l/m 0 min 0 min 0,0 UV-I 0 W/m 0,0 km/h (0 Bft)
03.02.2014 03:46 -0,6 C -2,8 C 96 % 1016,1 hPa 0,0 l/m 0 min 0 min 0,0 UV-I 0 W/m 0,0 km/h (0 Bft)
03.02.2014 03:48 -0,6 C -2,8 C 96 % 1016,1 hPa 0,0 l/m 0 min 0 min 0,0 UV-I 0 W/m 0,0 km/h (0 Bft)
03.02.2014 03:50 -0,6 C -2,8 C 96 % 1016,0 hPa 0,0 l/m 0 min 0 min 0,0 UV-I 0 W/m 0,0 km/h (0 Bft)
03.02.2014 03:52 -0,5 C -2,8 C 96 % 1016,0 hPa 0,0 l/m 0 min 0 min 0,0 UV-I 0 W/m 0,0 km/h (0 Bft)
03.02.2014 03:54 -0,5 C -2,8 C 96 % 1016,0 hPa 0,0 l/m 0 min 0 min 0,0 UV-I 0 W/m 2,6 km/h (1 Bft)
03.02.2014 03:56 -0,5 C -2,8 C 96 % 1016,0 hPa 0,0 l/m 0 min 0 min 0,0 UV-I 0 W/m 0,0 km/h (0 Bft)
03.02.2014 03:58 -0,5 C -2,8 C 96 % 1015,9 hPa 0,0 l/m 0 min 0 min 0,0 UV-I 0 W/m 0,0 km/h (0 Bft)
03.02.2014 04:00 -0,5 C -2,2 C 96 % 1016,0 hPa 0,0 l/m 0 min 0 min 0,0 UV-I 0 W/m 7,7 km/h (2 Bft)
03.02.2014 04:02 -0,4 C -2,2 C 96 % 1016,0 hPa 0,0 l/m 0 min 0 min 0,0 UV-I 0 W/m 7,7 km/h (2 Bft)
03.02.2014 04:04 -0,3 C -2,2 C 96 % 1016,0 hPa 0,0 l/m 0 min 0 min 0,0 UV-I 0 W/m 5,1 km/h (1 Bft)
03.02.2014 04:06 -0,3 C -2,2 C 96 % 1015,9 hPa 0,0 l/m 0 min 0 min 0,0 UV-I 0 W/m 0,0 km/h (0 Bft)
03.02.2014 04:08 -0,2 C -1,7 C 96 % 1015,9 hPa 0,0 l/m 0 min 0 min 0,0 UV-I 0 W/m 2,6 km/h (1 Bft)
03.02.2014 04:10 -0,2 C -1,7 C 96 % 1015,9 hPa 0,0 l/m 0 min 0 min 0,0 UV-I 0 W/m 7,7 km/h (2 Bft)
03.02.2014 04:12 -0,1 C -2,2 C 96 % 1015,9 hPa 0,0 l/m 0 min 0 min 0,0 UV-I 0 W/m 5,1 km/h (1 Bft)
03.02.2014 04:14 -0,1 C -1,7 C 96 % 1015,9 hPa 0,0 l/m 0 min 0 min 0,0 UV-I 0 W/m 0,0 km/h (0 Bft)
03.02.2014 04:16 -0,1 C -1,7 C 96 % 1015,8 hPa 0,0 l/m 0 min 0 min 0,0 UV-I 0 W/m 0,0 km/h (0 Bft)
03.02.2014 04:18 -0,1 C -1,7 C 96 % 1015,8 hPa 0,0 l/m 0 min 0 min 0,0 UV-I 0 W/m 7,7 km/h (2 Bft)
03.02.2014 04:20 -0,1 C -1,7 C 96 % 1015,8 hPa 0,0 l/m 0 min 0 min 0,0 UV-I 0 W/m 0,0 km/h (0 Bft)
03.02.2014 04:22 -0,1 C -1,7 C 96 % 1015,8 hPa 0,0 l/m 0 min 0 min 0,0 UV-I 0 W/m 0,0 km/h (0 Bft)
03.02.2014 04:24 -0,1 C -1,7 C 96 % 1015,8 hPa 0,0 l/m 0 min 0 min 0,0 UV-I 0 W/m 7,7 km/h (2 Bft)
03.02.2014 04:26 -0,1 C -1,7 C 96 % 1015,8 hPa 0,0 l/m 0 min 0 min 0,0 UV-I 0 W/m 2,6 km/h (1 Bft)
03.02.2014 04:28 -0,1 C -1,7 C 96 % 1015,8 hPa 0,0 l/m 0 min 0 min 0,0 UV-I 0 W/m 0,0 km/h (0 Bft)
03.02.2014 04:30 -0,1 C -1,7 C 96 % 1015,8 hPa 0,0 l/m 0 min 0 min 0,0 UV-I 0 W/m 0,0 km/h (0 Bft)
03.02.2014 04:32 -0,1 C -1,7 C 96 % 1015,7 hPa 0,0 l/m 0 min 0 min 0,0 UV-I 0 W/m 5,1 km/h (1 Bft)
03.02.2014 04:34 -0,1 C -1,7 C 96 % 1015,7 hPa 0,0 l/m 0 min 0 min 0,0 UV-I 0 W/m 2,6 km/h (1 Bft)
03.02.2014 04:36 -0,1 C -2,2 C 96 % 1015,7 hPa 0,0 l/m 0 min 0 min 0,0 UV-I 0 W/m 2,6 km/h (1 Bft)
03.02.2014 04:38 -0,1 C -2,2 C 96 % 1015,6 hPa 0,0 l/m 0 min 0 min 0,0 UV-I 0 W/m 5,1 km/h (1 Bft)
03.02.2014 04:40 -0,1 C -2,2 C 96 % 1015,7 hPa 0,0 l/m 0 min 0 min 0,0 UV-I 0 W/m 0,0 km/h (0 Bft)
03.02.2014 04:42 -0,1 C -2,2 C 96 % 1015,6 hPa 0,0 l/m 0 min 0 min 0,0 UV-I 0 W/m 0,0 km/h (0 Bft)
03.02.2014 04:44 -0,2 C -2,2 C 96 % 1015,6 hPa 0,0 l/m 0 min 0 min 0,0 UV-I 0 W/m 0,0 km/h (0 Bft)
03.02.2014 04:46 -0,2 C -2,2 C 96 % 1015,7 hPa 0,0 l/m 0 min 0 min 0,0 UV-I 0 W/m 0,0 km/h (0 Bft)
03.02.2014 04:48 -0,2 C -2,2 C 96 % 1015,7 hPa 0,0 l/m 0 min 0 min 0,0 UV-I 0 W/m 0,0 km/h (0 Bft)
03.02.2014 04:50 -0,2 C -2,2 C 96 % 1015,7 hPa 0,0 l/m 0 min 0 min 0,0 UV-I 0 W/m 0,0 km/h (0 Bft)
03.02.2014 04:52 -0,3 C -2,2 C 96 % 1015,7 hPa 0,0 l/m 0 min 0 min 0,0 UV-I 0 W/m 0,0 km/h (0 Bft)
03.02.2014 04:54 -0,3 C -2,2 C 96 % 1015,7 hPa 0,0 l/m 0 min 0 min 0,0 UV-I 0 W/m 0,0 km/h (0 Bft)
03.02.2014 04:56 -0,3 C -2,2 C 96 % 1015,7 hPa 0,0 l/m 0 min 0 min 0,0 UV-I 0 W/m 0,0 km/h (0 Bft)
03.02.2014 04:58 -0,3 C -2,2 C 96 % 1015,7 hPa 0,0 l/m 0 min 0 min 0,0 UV-I 0 W/m 0,0 km/h (0 Bft)
03.02.2014 05:00 -0,3 C -2,2 C 96 % 1015,7 hPa 0,0 l/m 0 min 0 min 0,0 UV-I 0 W/m 0,0 km/h (0 Bft)
03.02.2014 05:02 -0,3 C -2,2 C 96 % 1015,7 hPa 0,0 l/m 0 min 0 min 0,0 UV-I 0 W/m 0,0 km/h (0 Bft)
03.02.2014 05:04 -0,4 C -2,2 C 96 % 1015,7 hPa 0,0 l/m 0 min 0 min 0,0 UV-I 0 W/m 0,0 km/h (0 Bft)
03.02.2014 05:06 -0,3 C -2,2 C 96 % 1015,7 hPa 0,0 l/m 0 min 0 min 0,0 UV-I 0 W/m 2,6 km/h (1 Bft)
03.02.2014 05:08 -0,3 C -2,2 C 96 % 1015,7 hPa 0,0 l/m 0 min 0 min 0,0 UV-I 0 W/m 2,6 km/h (1 Bft)
03.02.2014 05:10 -0,3 C -2,2 C 96 % 1015,7 hPa 0,0 l/m 0 min 0 min 0,0 UV-I 0 W/m 0,0 km/h (0 Bft)
03.02.2014 05:12 -0,3 C -2,2 C 96 % 1015,6 hPa 0,0 l/m 0 min 0 min 0,0 UV-I 0 W/m 5,1 km/h (1 Bft)
03.02.2014 05:14 -0,3 C -2,2 C 96 % 1015,6 hPa 0,0 l/m 0 min 0 min 0,0 UV-I 0 W/m 0,0 km/h (0 Bft)
03.02.2014 05:16 -0,3 C -2,2 C 96 % 1015,6 hPa 0,0 l/m 0 min 0 min 0,0 UV-I 0 W/m 0,0 km/h (0 Bft)
03.02.2014 05:18 -0,3 C -2,2 C 96 % 1015,7 hPa 0,0 l/m 0 min 0 min 0,0 UV-I 0 W/m 2,6 km/h (1 Bft)
03.02.2014 05:20 -0,3 C -2,2 C 96 % 1015,7 hPa 0,0 l/m 0 min 0 min 0,0 UV-I 0 W/m 0,0 km/h (0 Bft)
03.02.2014 05:22 -0,3 C -2,2 C 96 % 1015,7 hPa 0,0 l/m 0 min 0 min 0,0 UV-I 0 W/m 0,0 km/h (0 Bft)
03.02.2014 05:24 -0,3 C -2,2 C 96 % 1015,7 hPa 0,0 l/m 0 min 0 min 0,0 UV-I 0 W/m 0,0 km/h (0 Bft)
03.02.2014 05:26 -0,3 C -2,2 C 96 % 1015,7 hPa 0,0 l/m 0 min 0 min 0,0 UV-I 0 W/m 7,7 km/h (2 Bft)
03.02.2014 05:28 -0,3 C -2,2 C 96 % 1015,7 hPa 0,0 l/m 0 min 0 min 0,0 UV-I 0 W/m 2,6 km/h (1 Bft)
03.02.2014 05:30 -0,4 C -2,2 C 96 % 1015,7 hPa 0,0 l/m 0 min 0 min 0,0 UV-I 0 W/m 5,1 km/h (1 Bft)
03.02.2014 05:32 -0,4 C -2,2 C 96 % 1015,7 hPa 0,0 l/m 0 min 0 min 0,0 UV-I 0 W/m 2,6 km/h (1 Bft)
03.02.2014 05:34 -0,4 C -2,2 C 96 % 1015,7 hPa 0,0 l/m 0 min 0 min 0,0 UV-I 0 W/m 0,0 km/h (0 Bft)
03.02.2014 05:36 -0,4 C -2,2 C 96 % 1015,7 hPa 0,0 l/m 0 min 0 min 0,0 UV-I 0 W/m 0,0 km/h (0 Bft)
03.02.2014 05:38 -0,4 C -2,2 C 96 % 1015,6 hPa 0,0 l/m 0 min 0 min 0,0 UV-I 0 W/m 0,0 km/h (0 Bft)
03.02.2014 05:40 -0,4 C -2,2 C 96 % 1015,7 hPa 0,0 l/m 0 min 0 min 0,0 UV-I 0 W/m 0,0 km/h (0 Bft)
03.02.2014 05:42 -0,4 C -2,2 C 96 % 1015,7 hPa 0,0 l/m 0 min 0 min 0,0 UV-I 0 W/m 2,6 km/h (1 Bft)
03.02.2014 05:44 -0,4 C -2,2 C 96 % 1015,6 hPa 0,0 l/m 0 min 0 min 0,0 UV-I 0 W/m 0,0 km/h (0 Bft)
03.02.2014 05:46 -0,4 C -2,2 C 96 % 1015,7 hPa 0,0 l/m 0 min 0 min 0,0 UV-I 0 W/m 0,0 km/h (0 Bft)
03.02.2014 05:48 -0,4 C -2,2 C 96 % 1015,7 hPa 0,0 l/m 0 min 0 min 0,0 UV-I 0 W/m 0,0 km/h (0 Bft)
03.02.2014 05:50 -0,4 C -2,2 C 96 % 1015,6 hPa 0,0 l/m 0 min 0 min 0,0 UV-I 0 W/m 0,0 km/h (0 Bft)
03.02.2014 05:52 -0,4 C -2,2 C 96 % 1015,6 hPa 0,0 l/m 0 min 0 min 0,0 UV-I 0 W/m 2,6 km/h (1 Bft)
03.02.2014 05:54 -0,4 C -2,2 C 96 % 1015,6 hPa 0,0 l/m 0 min 0 min 0,0 UV-I 0 W/m 7,7 km/h (2 Bft)
03.02.2014 05:56 -0,4 C -2,2 C 96 % 1015,6 hPa 0,0 l/m 0 min 0 min 0,0 UV-I 0 W/m 0,0 km/h (0 Bft)
03.02.2014 05:58 -0,4 C -2,2 C 96 % 1015,7 hPa 0,0 l/m 0 min 0 min 0,0 UV-I 0 W/m 0,0 km/h (0 Bft)
03.02.2014 06:00 -0,4 C -2,2 C 96 % 1015,7 hPa 0,0 l/m 0 min 0 min 0,0 UV-I 0 W/m 5,1 km/h (1 Bft)
03.02.2014 06:02 -0,4 C -2,2 C 96 % 1015,6 hPa 0,0 l/m 0 min 0 min 0,0 UV-I 0 W/m 2,6 km/h (1 Bft)
03.02.2014 06:04 -0,4 C -2,2 C 96 % 1015,6 hPa 0,0 l/m 0 min 0 min 0,0 UV-I 0 W/m 5,1 km/h (1 Bft)
03.02.2014 06:06 -0,4 C -2,2 C 96 % 1015,5 hPa 0,0 l/m 0 min 0 min 0,0 UV-I 0 W/m 2,6 km/h (1 Bft)
03.02.2014 06:08 -0,4 C -2,2 C 96 % 1015,5 hPa 0,0 l/m 0 min 0 min 0,0 UV-I 0 W/m 5,1 km/h (1 Bft)
03.02.2014 06:10 -0,4 C -2,2 C 96 % 1015,4 hPa 0,0 l/m 0 min 0 min 0,0 UV-I 0 W/m 0,0 km/h (0 Bft)
03.02.2014 06:12 -0,4 C -2,2 C 96 % 1015,4 hPa 0,0 l/m 0 min 0 min 0,0 UV-I 0 W/m 0,0 km/h (0 Bft)
03.02.2014 06:14 -0,4 C -2,2 C 96 % 1015,4 hPa 0,0 l/m 0 min 0 min 0,0 UV-I 0 W/m 0,0 km/h (0 Bft)
03.02.2014 06:16 -0,4 C -2,2 C 96 % 1015,5 hPa 0,0 l/m 0 min 0 min 0,0 UV-I 0 W/m 5,1 km/h (1 Bft)
03.02.2014 06:18 -0,4 C -2,2 C 96 % 1015,4 hPa 0,0 l/m 0 min 0 min 0,0 UV-I 0 W/m 2,6 km/h (1 Bft)
03.02.2014 06:20 -0,4 C -2,2 C 96 % 1015,5 hPa 0,0 l/m 0 min 0 min 0,0 UV-I 0 W/m 7,7 km/h (2 Bft)
03.02.2014 06:22 -0,4 C -2,2 C 96 % 1015,4 hPa 0,0 l/m 0 min 0 min 0,0 UV-I 0 W/m 5,1 km/h (1 Bft)
03.02.2014 06:24 -0,4 C -2,2 C 96 % 1015,4 hPa 0,0 l/m 0 min 0 min 0,0 UV-I 0 W/m 2,6 km/h (1 Bft)
03.02.2014 06:26 -0,4 C -2,2 C 96 % 1015,4 hPa 0,0 l/m 0 min 0 min 0,0 UV-I 0 W/m 2,6 km/h (1 Bft)
03.02.2014 06:28 -0,4 C -2,2 C 96 % 1015,4 hPa 0,0 l/m 0 min 0 min 0,0 UV-I 0 W/m 0,0 km/h (0 Bft)
03.02.2014 06:30 -0,4 C -2,2 C 96 % 1015,3 hPa 0,0 l/m 0 min 0 min 0,0 UV-I 0 W/m 0,0 km/h (0 Bft)
03.02.2014 06:32 -0,4 C -2,2 C 96 % 1015,3 hPa 0,0 l/m 0 min 0 min 0,0 UV-I 0 W/m 5,1 km/h (1 Bft)
03.02.2014 06:34 -0,5 C -2,2 C 96 % 1015,4 hPa 0,0 l/m 0 min 0 min 0,0 UV-I 0 W/m 2,6 km/h (1 Bft)
03.02.2014 06:36 -0,6 C -2,2 C 96 % 1015,4 hPa 0,0 l/m 0 min 0 min 0,0 UV-I 0 W/m 0,0 km/h (0 Bft)
03.02.2014 06:38 -0,6 C -2,2 C 96 % 1015,4 hPa 0,0 l/m 0 min 0 min 0,0 UV-I 0 W/m 0,0 km/h (0 Bft)
03.02.2014 06:40 -0,6 C -2,2 C 96 % 1015,3 hPa 0,0 l/m 0 min 0 min 0,0 UV-I 0 W/m 0,0 km/h (0 Bft)
03.02.2014 06:42 -0,6 C -2,2 C 96 % 1015,3 hPa 0,0 l/m 0 min 0 min 0,0 UV-I 0 W/m 2,6 km/h (1 Bft)
03.02.2014 06:44 -0,6 C -2,8 C 96 % 1015,3 hPa 0,0 l/m 0 min 0 min 0,0 UV-I 0 W/m 0,0 km/h (0 Bft)
03.02.2014 06:46 -0,7 C -2,8 C 96 % 1015,3 hPa 0,0 l/m 0 min 0 min 0,0 UV-I 0 W/m 0,0 km/h (0 Bft)
03.02.2014 06:48 -0,7 C -2,2 C 96 % 1015,4 hPa 0,0 l/m 0 min 0 min 0,0 UV-I 0 W/m 2,6 km/h (1 Bft)
03.02.2014 06:50 -0,7 C -2,8 C 96 % 1015,4 hPa 0,0 l/m 0 min 0 min 0,0 UV-I 0 W/m 0,0 km/h (0 Bft)
03.02.2014 06:52 -0,6 C -2,8 C 96 % 1015,4 hPa 0,0 l/m 0 min 0 min 0,0 UV-I 0 W/m 0,0 km/h (0 Bft)
03.02.2014 06:54 -0,6 C -2,8 C 96 % 1015,3 hPa 0,0 l/m 0 min 0 min 0,0 UV-I 0 W/m 0,0 km/h (0 Bft)
03.02.2014 06:56 -0,6 C -2,8 C 96 % 1015,3 hPa 0,0 l/m 0 min 0 min 0,0 UV-I 0 W/m 0,0 km/h (0 Bft)
03.02.2014 06:58 -0,6 C -2,8 C 96 % 1015,4 hPa 0,0 l/m 0 min 0 min 0,0 UV-I 0 W/m 0,0 km/h (0 Bft)
03.02.2014 07:00 -0,6 C -2,8 C 96 % 1015,4 hPa 0,0 l/m 0 min 0 min 0,0 UV-I 0 W/m 0,0 km/h (0 Bft)
03.02.2014 07:02 -0,6 C -2,8 C 96 % 1015,3 hPa 0,0 l/m 0 min 0 min 0,0 UV-I 0 W/m 0,0 km/h (0 Bft)
03.02.2014 07:04 -0,7 C -2,8 C 96 % 1015,3 hPa 0,0 l/m 0 min 0 min 0,0 UV-I 0 W/m 0,0 km/h (0 Bft)
03.02.2014 07:06 -0,6 C -2,8 C 96 % 1015,3 hPa 0,0 l/m 0 min 0 min 0,0 UV-I 0 W/m 0,0 km/h (0 Bft)
03.02.2014 07:08 -0,6 C -2,8 C 96 % 1015,3 hPa 0,0 l/m 0 min 0 min 0,0 UV-I 0 W/m 0,0 km/h (0 Bft)
03.02.2014 07:10 -0,6 C -2,8 C 96 % 1015,3 hPa 0,0 l/m 0 min 0 min 0,0 UV-I 0 W/m 0,0 km/h (0 Bft)
03.02.2014 07:12 -0,7 C -2,8 C 96 % 1015,2 hPa 0,0 l/m 0 min 0 min 0,0 UV-I 0 W/m 0,0 km/h (0 Bft)
03.02.2014 07:14 -0,7 C -2,8 C 96 % 1015,2 hPa 0,0 l/m 0 min 0 min 0,0 UV-I 0 W/m 0,0 km/h (0 Bft)
03.02.2014 07:16 -0,6 C -2,8 C 96 % 1015,2 hPa 0,0 l/m 0 min 0 min 0,0 UV-I 0 W/m 0,0 km/h (0 Bft)
03.02.2014 07:18 -0,6 C -2,8 C 96 % 1015,1 hPa 0,0 l/m 0 min 0 min 0,0 UV-I 0 W/m 0,0 km/h (0 Bft)
03.02.2014 07:20 -0,6 C -2,2 C 96 % 1015,1 hPa 0,0 l/m 0 min 0 min 0,0 UV-I 0 W/m 0,0 km/h (0 Bft)
03.02.2014 07:22 -0,6 C -2,2 C 96 % 1015,1 hPa 0,0 l/m 0 min 0 min 0,0 UV-I 0 W/m 0,0 km/h (0 Bft)
03.02.2014 07:24 -0,6 C -2,2 C 96 % 1015,1 hPa 0,0 l/m 0 min 0 min 0,0 UV-I 0 W/m 0,0 km/h (0 Bft)
03.02.2014 07:26 -0,6 C -2,8 C 96 % 1015,1 hPa 0,0 l/m 0 min 0 min 0,0 UV-I 0 W/m 0,0 km/h (0 Bft)
03.02.2014 07:28 -0,6 C -2,8 C 96 % 1015,1 hPa 0,0 l/m 0 min 0 min 0,0 UV-I 0 W/m 0,0 km/h (0 Bft)
03.02.2014 07:30 -0,6 C -2,8 C 96 % 1015,0 hPa 0,0 l/m 0 min 0 min 0,0 UV-I 0 W/m 0,0 km/h (0 Bft)
03.02.2014 07:32 -0,6 C -2,8 C 96 % 1015,0 hPa 0,0 l/m 0 min 0 min 0,0 UV-I 0 W/m 0,0 km/h (0 Bft)
03.02.2014 07:34 -0,6 C -2,8 C 96 % 1015,0 hPa 0,0 l/m 0 min 0 min 0,0 UV-I 0 W/m 0,0 km/h (0 Bft)
03.02.2014 07:36 -0,7 C -2,8 C 96 % 1014,9 hPa 0,0 l/m 0 min 0 min 0,0 UV-I 0 W/m 0,0 km/h (0 Bft)
03.02.2014 07:38 -0,7 C -2,8 C 96 % 1014,9 hPa 0,0 l/m 0 min 0 min 0,0 UV-I 0 W/m 2,6 km/h (1 Bft)
03.02.2014 07:40 -0,6 C -2,8 C 96 % 1015,0 hPa 0,0 l/m 0 min 0 min 0,0 UV-I 0 W/m 0,0 km/h (0 Bft)
03.02.2014 07:42 -0,7 C -2,2 C 96 % 1014,9 hPa 0,0 l/m 0 min 0 min 0,0 UV-I 0 W/m 0,0 km/h (0 Bft)
03.02.2014 07:44 -0,6 C -2,8 C 96 % 1014,8 hPa 0,0 l/m 0 min 0 min 0,0 UV-I 0 W/m 5,1 km/h (1 Bft)
03.02.2014 07:46 -0,6 C -2,2 C 96 % 1014,7 hPa 0,0 l/m 0 min 0 min 0,0 UV-I 0 W/m 0,0 km/h (0 Bft)
03.02.2014 07:48 -0,7 C -2,8 C 96 % 1014,7 hPa 0,0 l/m 0 min 0 min 0,0 UV-I 0 W/m 0,0 km/h (0 Bft)
03.02.2014 07:50 -0,7 C -2,8 C 96 % 1014,7 hPa 0,0 l/m 0 min 0 min 0,0 UV-I 0 W/m 0,0 km/h (0 Bft)
03.02.2014 07:52 -0,7 C -2,8 C 96 % 1014,7 hPa 0,0 l/m 0 min 0 min 0,0 UV-I 0 W/m 0,0 km/h (0 Bft)
03.02.2014 07:54 -0,7 C -2,8 C 96 % 1014,7 hPa 0,0 l/m 0 min 0 min 0,0 UV-I 0 W/m 0,0 km/h (0 Bft)
03.02.2014 07:56 -0,7 C -2,8 C 96 % 1014,7 hPa 0,0 l/m 0 min 0 min 0,0 UV-I 0 W/m 0,0 km/h (0 Bft)
03.02.2014 07:58 -0,7 C -2,8 C 96 % 1014,7 hPa 0,0 l/m 0 min 0 min 0,0 UV-I 0 W/m 0,0 km/h (0 Bft)
03.02.2014 08:00 -0,7 C -2,8 C 96 % 1014,6 hPa 0,0 l/m 0 min 0 min 0,0 UV-I 0 W/m 0,0 km/h (0 Bft)
03.02.2014 08:02 -0,8 C -2,8 C 96 % 1014,6 hPa 0,0 l/m 0 min 0 min 0,0 UV-I 0 W/m 0,0 km/h (0 Bft)
03.02.2014 08:04 -0,8 C -2,8 C 96 % 1014,6 hPa 0,0 l/m 0 min 0 min 0,0 UV-I 0 W/m 0,0 km/h (0 Bft)
03.02.2014 08:06 -0,8 C -2,8 C 96 % 1014,6 hPa 0,0 l/m 0 min 0 min 0,0 UV-I 0 W/m 0,0 km/h (0 Bft)
03.02.2014 08:08 -0,8 C -2,8 C 96 % 1014,6 hPa 0,0 l/m 0 min 0 min 0,0 UV-I 0 W/m 0,0 km/h (0 Bft)
03.02.2014 08:10 -0,9 C -2,8 C 96 % 1014,5 hPa 0,0 l/m 0 min 0 min 0,0 UV-I 0 W/m 0,0 km/h (0 Bft)
03.02.2014 08:12 -0,9 C -2,8 C 96 % 1014,5 hPa 0,0 l/m 0 min 0 min 0,0 UV-I 0 W/m 0,0 km/h (0 Bft)
03.02.2014 08:14 -0,9 C -2,8 C 96 % 1014,6 hPa 0,0 l/m 0 min 0 min 0,0 UV-I 5 W/m 0,0 km/h (0 Bft)
03.02.2014 08:16 -0,9 C -2,8 C 96 % 1014,6 hPa 0,0 l/m 0 min 0 min 0,0 UV-I 5 W/m 0,0 km/h (0 Bft)
03.02.2014 08:18 -0,9 C -2,8 C 96 % 1014,6 hPa 0,0 l/m 0 min 0 min 0,0 UV-I 5 W/m 0,0 km/h (0 Bft)
03.02.2014 08:20 -0,9 C -2,8 C 96 % 1014,5 hPa 0,0 l/m 0 min 0 min 0,0 UV-I 5 W/m 0,0 km/h (0 Bft)
03.02.2014 08:22 -0,9 C -2,8 C 96 % 1014,5 hPa 0,0 l/m 0 min 0 min 0,0 UV-I 7 W/m 0,0 km/h (0 Bft)
03.02.2014 08:24 -0,9 C -2,8 C 96 % 1014,5 hPa 0,0 l/m 0 min 0 min 0,0 UV-I 7 W/m 0,0 km/h (0 Bft)
03.02.2014 08:26 -0,9 C -2,8 C 96 % 1014,5 hPa 0,0 l/m 0 min 0 min 0,0 UV-I 7 W/m 0,0 km/h (0 Bft)
03.02.2014 08:28 -1,1 C -3,3 C 96 % 1014,4 hPa 0,0 l/m 0 min 0 min 0,0 UV-I 9 W/m 0,0 km/h (0 Bft)
03.02.2014 08:30 -1,1 C -3,3 C 96 % 1014,4 hPa 0,0 l/m 0 min 0 min 0,0 UV-I 9 W/m 0,0 km/h (0 Bft)
03.02.2014 08:32 -1,1 C -3,3 C 96 % 1014,5 hPa 0,0 l/m 0 min 0 min 0,0 UV-I 9 W/m 0,0 km/h (0 Bft)
03.02.2014 08:34 -1,1 C -2,8 C 96 % 1014,4 hPa 0,0 l/m 0 min 0 min 0,0 UV-I 11 W/m 0,0 km/h (0 Bft)
03.02.2014 08:36 -1,0 C -2,8 C 96 % 1014,4 hPa 0,0 l/m 0 min 0 min 0,0 UV-I 12 W/m 0,0 km/h (0 Bft)
03.02.2014 08:38 -0,9 C -2,8 C 96 % 1014,4 hPa 0,0 l/m 0 min 0 min 0,0 UV-I 12 W/m 0,0 km/h (0 Bft)
03.02.2014 08:40 -0,8 C -2,8 C 96 % 1014,3 hPa 0,0 l/m 0 min 0 min 0,0 UV-I 14 W/m 0,0 km/h (0 Bft)
03.02.2014 08:42 -0,8 C -2,8 C 96 % 1014,3 hPa 0,0 l/m 0 min 0 min 0,0 UV-I 16 W/m 5,1 km/h (1 Bft)
03.02.2014 08:44 -0,8 C -2,8 C 96 % 1014,3 hPa 0,0 l/m 0 min 0 min 0,0 UV-I 18 W/m 2,6 km/h (1 Bft)
03.02.2014 08:46 -0,7 C -2,8 C 96 % 1014,2 hPa 0,0 l/m 0 min 0 min 0,0 UV-I 19 W/m 0,0 km/h (0 Bft)
03.02.2014 08:48 -0,7 C -2,8 C 96 % 1014,1 hPa 0,0 l/m 0 min 0 min 0,0 UV-I 21 W/m 0,0 km/h (0 Bft)
03.02.2014 08:50 -0,7 C -2,8 C 96 % 1014,2 hPa 0,0 l/m 0 min 0 min 0,0 UV-I 23 W/m 0,0 km/h (0 Bft)
03.02.2014 08:52 -0,7 C -2,2 C 96 % 1014,1 hPa 0,0 l/m 0 min 0 min 0,0 UV-I 23 W/m 0,0 km/h (0 Bft)
03.02.2014 08:54 -0,6 C -2,2 C 96 % 1014,1 hPa 0,0 l/m 0 min 0 min 0,0 UV-I 23 W/m 0,0 km/h (0 Bft)
03.02.2014 08:56 -0,6 C -2,2 C 96 % 1014,1 hPa 0,0 l/m 0 min 0 min 0,0 UV-I 25 W/m 0,0 km/h (0 Bft)
03.02.2014 08:58 -0,6 C -2,2 C 96 % 1014,1 hPa 0,0 l/m 0 min 0 min 0,0 UV-I 25 W/m 0,0 km/h (0 Bft)
03.02.2014 09:00 -0,6 C -2,2 C 96 % 1014,2 hPa 0,0 l/m 0 min 0 min 0,0 UV-I 25 W/m 0,0 km/h (0 Bft)
03.02.2014 09:02 -0,6 C -2,2 C 96 % 1014,1 hPa 0,0 l/m 0 min 0 min 0,0 UV-I 25 W/m 0,0 km/h (0 Bft)
03.02.2014 09:04 -0,5 C -2,2 C 96 % 1014,1 hPa 0,0 l/m 0 min 0 min 0,0 UV-I 28 W/m 0,0 km/h (0 Bft)
03.02.2014 09:06 -0,4 C -2,2 C 96 % 1014,1 hPa 0,0 l/m 0 min 0 min 0,0 UV-I 28 W/m 0,0 km/h (0 Bft)
03.02.2014 09:08 -0,3 C -2,2 C 96 % 1014,1 hPa 0,0 l/m 0 min 0 min 0,0 UV-I 28 W/m 0,0 km/h (0 Bft)
03.02.2014 09:10 -0,3 C -2,2 C 96 % 1014,0 hPa 0,0 l/m 0 min 0 min 0,0 UV-I 30 W/m 0,0 km/h (0 Bft)
03.02.2014 09:12 -0,3 C -2,2 C 96 % 1014,0 hPa 0,0 l/m 0 min 0 min 0,0 UV-I 30 W/m 0,0 km/h (0 Bft)
03.02.2014 09:14 -0,2 C -2,2 C 96 % 1014,0 hPa 0,0 l/m 0 min 0 min 0,0 UV-I 30 W/m 0,0 km/h (0 Bft)
03.02.2014 09:16 -0,1 C -2,2 C 96 % 1014,1 hPa 0,0 l/m 0 min 0 min 0,0 UV-I 32 W/m 0,0 km/h (0 Bft)
03.02.2014 09:18 -0,1 C -2,2 C 96 % 1014,0 hPa 0,0 l/m 0 min 0 min 0,0 UV-I 32 W/m 0,0 km/h (0 Bft)
03.02.2014 09:20 0,0 C -1,7 C 96 % 1014,1 hPa 0,0 l/m 0 min 0 min 0,0 UV-I 32 W/m 7,7 km/h (2 Bft)
03.02.2014 09:22 0,1 C -1,7 C 96 % 1014,0 hPa 0,0 l/m 0 min 0 min 0,0 UV-I 33 W/m 0,0 km/h (0 Bft)
03.02.2014 09:24 0,2 C -1,7 C 96 % 1014,0 hPa 0,0 l/m 0 min 0 min 0,0 UV-I 32 W/m 0,0 km/h (0 Bft)
03.02.2014 09:26 0,3 C -1,7 C 96 % 1013,9 hPa 0,0 l/m 0 min 0 min 0,0 UV-I 69 W/m 0,0 km/h (0 Bft)
03.02.2014 09:28 0,4 C -1,7 C 96 % 1013,9 hPa 0,0 l/m 2 min 0 min 0,0 UV-I 98 W/m 0,0 km/h (0 Bft)
03.02.2014 09:30 0,5 C -1,7 C 96 % 1013,9 hPa 0,0 l/m 2 min 0 min 0,0 UV-I 100 W/m 0,0 km/h (0 Bft)
03.02.2014 09:32 0,5 C -1,7 C 96 % 1013,9 hPa 0,0 l/m 2 min 0 min 0,0 UV-I 105 W/m 0,0 km/h (0 Bft)
03.02.2014 09:34 0,6 C -1,7 C 96 % 1013,9 hPa 0,0 l/m 2 min 0 min 0,0 UV-I 107 W/m 0,0 km/h (0 Bft)
03.02.2014 09:36 0,6 C -1,1 C 96 % 1013,9 hPa 0,0 l/m 2 min 0 min 0,0 UV-I 111 W/m 0,0 km/h (0 Bft)
03.02.2014 09:38 0,6 C -1,1 C 96 % 1013,9 hPa 0,0 l/m 2 min 0 min 0,0 UV-I 116 W/m 0,0 km/h (0 Bft)
03.02.2014 09:40 0,7 C -1,1 C 96 % 1013,9 hPa 0,0 l/m 2 min 0 min 0,0 UV-I 118 W/m 5,1 km/h (1 Bft)
03.02.2014 09:42 0,8 C -1,1 C 96 % 1013,9 hPa 0,0 l/m 2 min 0 min 0,0 UV-I 120 W/m 0,0 km/h (0 Bft)
03.02.2014 09:44 0,8 C -0,6 C 96 % 1013,9 hPa 0,0 l/m 2 min 0 min 0,0 UV-I 127 W/m 0,0 km/h (0 Bft)
03.02.2014 09:46 0,9 C -0,6 C 96 % 1013,9 hPa 0,0 l/m 2 min 0 min 0,0 UV-I 130 W/m 2,6 km/h (1 Bft)
03.02.2014 09:48 1,0 C -0,6 C 96 % 1013,9 hPa 0,0 l/m 2 min 0 min 0,0 UV-I 134 W/m 2,6 km/h (1 Bft)
03.02.2014 09:50 1,1 C -0,6 C 96 % 1013,9 hPa 0,0 l/m 2 min 0 min 0,0 UV-I 137 W/m 2,6 km/h (1 Bft)
03.02.2014 09:52 1,1 C -0,6 C 96 % 1013,9 hPa 0,0 l/m 2 min 0 min 0,0 UV-I 141 W/m 5,1 km/h (1 Bft)
03.02.2014 09:54 1,2 C -0,6 C 96 % 1013,9 hPa 0,0 l/m 2 min 0 min 0,0 UV-I 144 W/m 7,7 km/h (2 Bft)
03.02.2014 09:56 1,2 C -0,6 C 96 % 1013,8 hPa 0,0 l/m 2 min 0 min 0,0 UV-I 149 W/m 7,7 km/h (2 Bft)
03.02.2014 09:58 1,3 C -0,6 C 96 % 1013,9 hPa 0,0 l/m 2 min 0 min 0,0 UV-I 153 W/m 7,7 km/h (2 Bft)
03.02.2014 10:00 1,4 C 0,0 C 96 % 1013,8 hPa 0,0 l/m 2 min 0 min 0,0 UV-I 155 W/m 7,7 km/h (2 Bft)
03.02.2014 10:02 1,4 C 0,0 C 96 % 1013,8 hPa 0,0 l/m 2 min 0 min 0,0 UV-I 160 W/m 2,6 km/h (1 Bft)
03.02.2014 10:04 1,5 C 0,0 C 96 % 1013,7 hPa 0,0 l/m 2 min 0 min 0,0 UV-I 163 W/m 18,0 km/h (3 Bft)
03.02.2014 10:06 1,6 C 0,0 C 96 % 1013,7 hPa 0,0 l/m 2 min 0 min 0,0 UV-I 167 W/m 5,1 km/h (1 Bft)
03.02.2014 10:08 1,7 C 0,0 C 95 % 1013,7 hPa 0,2 l/m 2 min 0 min 0,0 UV-I 172 W/m 10,3 km/h (2 Bft)
03.02.2014 10:10 1,7 C 0,0 C 95 % 1013,7 hPa 0,0 l/m 2 min 0 min 0,0 UV-I 176 W/m 12,9 km/h (3 Bft)
03.02.2014 10:12 1,8 C 0,0 C 95 % 1013,7 hPa 0,0 l/m 2 min 0 min 0,0 UV-I 178 W/m 7,7 km/h (2 Bft)
03.02.2014 10:14 1,9 C 0,0 C 95 % 1013,7 hPa 0,0 l/m 2 min 0 min 0,0 UV-I 183 W/m 7,7 km/h (2 Bft)
03.02.2014 10:16 2,1 C 0,6 C 95 % 1013,7 hPa 0,0 l/m 2 min 0 min 0,0 UV-I 185 W/m 7,7 km/h (2 Bft)
03.02.2014 10:18 2,1 C 0,6 C 94 % 1013,6 hPa 0,0 l/m 2 min 0 min 0,0 UV-I 186 W/m 15,4 km/h (3 Bft)
03.02.2014 10:20 2,2 C 0,6 C 94 % 1013,6 hPa 0,0 l/m 2 min 0 min 0,0 UV-I 193 W/m 5,1 km/h (1 Bft)
03.02.2014 10:22 2,3 C 0,6 C 94 % 1013,5 hPa 0,0 l/m 2 min 0 min 0,0 UV-I 195 W/m 5,1 km/h (1 Bft)
03.02.2014 10:24 2,4 C 0,6 C 94 % 1013,4 hPa 0,0 l/m 2 min 0 min 0,0 UV-I 199 W/m 12,9 km/h (3 Bft)
03.02.2014 10:26 2,5 C 0,6 C 93 % 1013,4 hPa 0,0 l/m 2 min 0 min 0,0 UV-I 204 W/m 12,9 km/h (3 Bft)
03.02.2014 10:28 2,6 C 0,6 C 93 % 1013,4 hPa 0,0 l/m 2 min 0 min 0,0 UV-I 207 W/m 7,7 km/h (2 Bft)
03.02.2014 10:30 2,7 C 0,6 C 93 % 1013,3 hPa 0,0 l/m 2 min 0 min 0,0 UV-I 209 W/m 0,0 km/h (0 Bft)
03.02.2014 10:32 2,8 C 0,6 C 92 % 1013,3 hPa 0,0 l/m 2 min 0 min 0,0 UV-I 214 W/m 7,7 km/h (2 Bft)
03.02.2014 10:34 2,9 C 1,1 C 92 % 1013,3 hPa 0,0 l/m 2 min 0 min 0,0 UV-I 216 W/m 10,3 km/h (2 Bft)
03.02.2014 10:36 2,9 C 1,1 C 91 % 1013,3 hPa 0,0 l/m 2 min 0 min 0,0 UV-I 221 W/m 0,0 km/h (0 Bft)
03.02.2014 10:38 3,1 C 1,1 C 91 % 1013,3 hPa 0,0 l/m 2 min 0 min 0,0 UV-I 223 W/m 12,9 km/h (3 Bft)
03.02.2014 10:40 3,1 C 1,1 C 91 % 1013,2 hPa 0,0 l/m 2 min 0 min 0,0 UV-I 227 W/m 10,3 km/h (2 Bft)
03.02.2014 10:42 3,2 C 1,1 C 90 % 1013,1 hPa 0,0 l/m 2 min 0 min 0,0 UV-I 230 W/m 20,6 km/h (4 Bft)
03.02.2014 10:44 3,2 C 1,1 C 90 % 1013,1 hPa 0,0 l/m 2 min 0 min 0,0 UV-I 234 W/m 10,3 km/h (2 Bft)
03.02.2014 10:46 3,3 C 1,7 C 90 % 1013,1 hPa 0,0 l/m 2 min 0 min 0,0 UV-I 237 W/m 10,3 km/h (2 Bft)
03.02.2014 10:48 3,4 C 1,7 C 89 % 1013,0 hPa 0,0 l/m 2 min 0 min 0,0 UV-I 241 W/m 2,6 km/h (1 Bft)
03.02.2014 10:50 3,5 C 1,7 C 89 % 1012,9 hPa 0,0 l/m 2 min 0 min 0,0 UV-I 243 W/m 15,4 km/h (3 Bft)
03.02.2014 10:52 3,6 C 1,7 C 89 % 1013,0 hPa 0,0 l/m 2 min 0 min 0,0 UV-I 246 W/m 7,7 km/h (2 Bft)
03.02.2014 10:54 3,7 C 1,7 C 88 % 1012,9 hPa 0,0 l/m 2 min 0 min 0,0 UV-I 244 W/m 7,7 km/h (2 Bft)
03.02.2014 10:56 3,8 C 1,7 C 88 % 1012,9 hPa 0,0 l/m 2 min 0 min 0,0 UV-I 248 W/m 12,9 km/h (3 Bft)
03.02.2014 10:58 3,8 C 1,7 C 88 % 1012,9 hPa 0,0 l/m 2 min 0 min 0,0 UV-I 255 W/m 7,7 km/h (2 Bft)
03.02.2014 11:00 3,9 C 1,7 C 88 % 1012,7 hPa 0,0 l/m 2 min 0 min 0,0 UV-I 237 W/m 7,7 km/h (2 Bft)
03.02.2014 11:02 4,1 C 1,7 C 87 % 1012,8 hPa 0,0 l/m 2 min 0 min 0,0 UV-I 244 W/m 10,3 km/h (2 Bft)
03.02.2014 11:04 4,2 C 1,7 C 86 % 1012,7 hPa 0,0 l/m 2 min 0 min 0,0 UV-I 250 W/m 0,0 km/h (0 Bft)
03.02.2014 11:06 4,2 C 1,7 C 86 % 1012,8 hPa 0,0 l/m 2 min 0 min 0,0 UV-I 265 W/m 18,0 km/h (3 Bft)
03.02.2014 11:08 4,2 C 2,2 C 85 % 1012,7 hPa 0,0 l/m 2 min 0 min 0,0 UV-I 265 W/m 7,7 km/h (2 Bft)
03.02.2014 11:10 4,2 C 2,2 C 85 % 1012,6 hPa 0,0 l/m 2 min 0 min 0,0 UV-I 267 W/m 10,3 km/h (2 Bft)
03.02.2014 11:12 4,3 C 2,2 C 85 % 1012,6 hPa 0,0 l/m 2 min 0 min 0,0 UV-I 269 W/m 10,3 km/h (2 Bft)
03.02.2014 11:14 4,2 C 2,2 C 84 % 1012,6 hPa 0,0 l/m 2 min 0 min 0,0 UV-I 272 W/m 12,9 km/h (3 Bft)
03.02.2014 11:16 4,3 C 2,2 C 85 % 1012,6 hPa 0,0 l/m 2 min 0 min 0,0 UV-I 276 W/m 0,0 km/h (0 Bft)
03.02.2014 11:18 4,5 C 2,2 C 85 % 1012,5 hPa 0,0 l/m 2 min 0 min 0,0 UV-I 279 W/m 5,1 km/h (1 Bft)
03.02.2014 11:20 4,6 C 2,2 C 84 % 1012,5 hPa 0,0 l/m 2 min 0 min 0,0 UV-I 281 W/m 7,7 km/h (2 Bft)
03.02.2014 11:22 4,7 C 2,2 C 83 % 1012,5 hPa 0,0 l/m 2 min 0 min 0,0 UV-I 283 W/m 12,9 km/h (3 Bft)
03.02.2014 11:24 4,7 C 2,2 C 83 % 1012,5 hPa 0,0 l/m 2 min 0 min 0,0 UV-I 285 W/m 15,4 km/h (3 Bft)
03.02.2014 11:26 4,7 C 2,8 C 83 % 1012,6 hPa 0,0 l/m 2 min 0 min 0,0 UV-I 287 W/m 12,9 km/h (3 Bft)
03.02.2014 11:28 4,7 C 2,2 C 83 % 1012,5 hPa 0,0 l/m 2 min 0 min 0,0 UV-I 287 W/m 12,9 km/h (3 Bft)
03.02.2014 11:30 4,7 C 2,8 C 83 % 1012,5 hPa 0,0 l/m 2 min 0 min 0,0 UV-I 288 W/m 12,9 km/h (3 Bft)
03.02.2014 11:32 4,7 C 2,8 C 82 % 1012,5 hPa 0,0 l/m 2 min 0 min 0,0 UV-I 292 W/m 20,6 km/h (4 Bft)
03.02.2014 11:34 4,7 C 2,8 C 83 % 1012,5 hPa 0,0 l/m 2 min 0 min 0,0 UV-I 294 W/m 0,0 km/h (0 Bft)
03.02.2014 11:36 4,8 C 2,8 C 83 % 1012,4 hPa 0,0 l/m 2 min 0 min 0,0 UV-I 295 W/m 15,4 km/h (3 Bft)
03.02.2014 11:38 4,9 C 2,8 C 83 % 1012,4 hPa 0,0 l/m 2 min 0 min 0,0 UV-I 297 W/m 10,3 km/h (2 Bft)
03.02.2014 11:40 4,9 C 2,8 C 82 % 1012,4 hPa 0,0 l/m 2 min 0 min 0,0 UV-I 299 W/m 0,0 km/h (0 Bft)
03.02.2014 11:42 5,1 C 2,8 C 82 % 1012,3 hPa 0,0 l/m 2 min 0 min 0,0 UV-I 302 W/m 18,0 km/h (3 Bft)
03.02.2014 11:44 5,1 C 3,3 C 82 % 1012,3 hPa 0,0 l/m 2 min 0 min 0,0 UV-I 306 W/m 20,6 km/h (4 Bft)
03.02.2014 11:46 5,2 C 3,3 C 82 % 1012,2 hPa 0,0 l/m 2 min 0 min 0,0 UV-I 308 W/m 15,4 km/h (3 Bft)
03.02.2014 11:48 5,1 C 3,3 C 81 % 1012,2 hPa 0,0 l/m 2 min 0 min 0,0 UV-I 309 W/m 12,9 km/h (3 Bft)
03.02.2014 11:50 5,2 C 3,3 C 82 % 1012,2 hPa 0,0 l/m 2 min 0 min 0,0 UV-I 313 W/m 5,1 km/h (1 Bft)
03.02.2014 11:52 5,1 C 3,3 C 82 % 1012,1 hPa 0,0 l/m 2 min 0 min 0,0 UV-I 311 W/m 7,7 km/h (2 Bft)
03.02.2014 11:54 5,2 C 3,3 C 82 % 1012,1 hPa 0,0 l/m 2 min 0 min 0,0 UV-I 315 W/m 7,7 km/h (2 Bft)
03.02.2014 11:56 5,3 C 3,3 C 81 % 1012,0 hPa 0,0 l/m 2 min 0 min 0,0 UV-I 318 W/m 10,3 km/h (2 Bft)
03.02.2014 11:58 5,3 C 3,3 C 81 % 1012,0 hPa 0,0 l/m 2 min 0 min 0,0 UV-I 320 W/m 10,3 km/h (2 Bft)
03.02.2014 12:00 5,4 C 3,3 C 82 % 1012,0 hPa 0,0 l/m 2 min 0 min 0,0 UV-I 322 W/m 5,1 km/h (1 Bft)
03.02.2014 12:02 5,6 C 3,3 C 82 % 1011,9 hPa 0,0 l/m 2 min 0 min 0,0 UV-I 322 W/m 5,1 km/h (1 Bft)
03.02.2014 12:04 5,7 C 3,9 C 81 % 1011,9 hPa 0,0 l/m 2 min 0 min 0,0 UV-I 322 W/m 10,3 km/h (2 Bft)
03.02.2014 12:06 5,8 C 3,9 C 81 % 1011,9 hPa 0,0 l/m 2 min 0 min 0,0 UV-I 320 W/m 18,0 km/h (3 Bft)
03.02.2014 12:08 5,7 C 3,9 C 80 % 1011,8 hPa 0,0 l/m 2 min 0 min 0,0 UV-I 325 W/m 12,9 km/h (3 Bft)
03.02.2014 12:10 5,7 C 3,9 C 80 % 1011,6 hPa 0,0 l/m 2 min 0 min 0,0 UV-I 322 W/m 20,6 km/h (4 Bft)
03.02.2014 12:12 5,6 C 3,9 C 80 % 1011,6 hPa 0,0 l/m 2 min 0 min 0,0 UV-I 325 W/m 18,0 km/h (3 Bft)
03.02.2014 12:14 5,8 C 3,9 C 80 % 1011,5 hPa 0,0 l/m 2 min 0 min 0,0 UV-I 329 W/m 12,9 km/h (3 Bft)
03.02.2014 12:16 5,8 C 3,9 C 80 % 1011,5 hPa 0,0 l/m 2 min 0 min 0,0 UV-I 320 W/m 12,9 km/h (3 Bft)
03.02.2014 12:18 5,9 C 3,9 C 80 % 1011,5 hPa 0,0 l/m 2 min 0 min 0,0 UV-I 325 W/m 10,3 km/h (2 Bft)
03.02.2014 12:20 6,0 C 3,9 C 80 % 1011,4 hPa 0,0 l/m 2 min 0 min 0,0 UV-I 330 W/m 20,6 km/h (4 Bft)
03.02.2014 12:22 6,1 C 3,9 C 80 % 1011,4 hPa 0,0 l/m 2 min 0 min 0,0 UV-I 334 W/m 12,9 km/h (3 Bft)
03.02.2014 12:24 6,1 C 4,4 C 80 % 1011,5 hPa 0,0 l/m 2 min 0 min 0,0 UV-I 316 W/m 12,9 km/h (3 Bft)
03.02.2014 12:26 6,1 C 4,4 C 80 % 1011,4 hPa 0,0 l/m 2 min 0 min 0,0 UV-I 308 W/m 18,0 km/h (3 Bft)
03.02.2014 12:28 6,1 C 4,4 C 79 % 1011,4 hPa 0,0 l/m 2 min 0 min 0,0 UV-I 330 W/m 15,4 km/h (3 Bft)
03.02.2014 12:30 6,1 C 4,4 C 80 % 1011,4 hPa 0,0 l/m 2 min 0 min 0,0 UV-I 329 W/m 15,4 km/h (3 Bft)
03.02.2014 12:32 6,1 C 4,4 C 80 % 1011,3 hPa 0,0 l/m 2 min 0 min 0,0 UV-I 332 W/m 7,7 km/h (2 Bft)
03.02.2014 12:34 6,2 C 4,4 C 80 % 1011,3 hPa 0,0 l/m 2 min 0 min 0,0 UV-I 334 W/m 12,9 km/h (3 Bft)
03.02.2014 12:36 6,3 C 4,4 C 80 % 1011,2 hPa 0,0 l/m 2 min 0 min 0,0 UV-I 334 W/m 7,7 km/h (2 Bft)
03.02.2014 12:38 6,4 C 4,4 C 79 % 1011,2 hPa 0,0 l/m 2 min 0 min 0,0 UV-I 332 W/m 20,6 km/h (4 Bft)
03.02.2014 12:40 6,3 C 4,4 C 79 % 1011,2 hPa 0,0 l/m 2 min 0 min 0,0 UV-I 334 W/m 12,9 km/h (3 Bft)
03.02.2014 12:42 6,2 C 4,4 C 79 % 1011,1 hPa 0,0 l/m 2 min 0 min 0,0 UV-I 334 W/m 20,6 km/h (4 Bft)
03.02.2014 12:44 6,1 C 4,4 C 79 % 1011,1 hPa 0,0 l/m 2 min 0 min 0,0 UV-I 336 W/m 15,4 km/h (3 Bft)
03.02.2014 12:46 6,1 C 4,4 C 79 % 1011,1 hPa 0,0 l/m 2 min 0 min 0,0 UV-I 339 W/m 20,6 km/h (4 Bft)
03.02.2014 12:48 6,1 C 4,4 C 79 % 1011,1 hPa 0,0 l/m 2 min 0 min 0,0 UV-I 295 W/m 15,4 km/h (3 Bft)
03.02.2014 12:50 6,1 C 4,4 C 79 % 1011,0 hPa 0,0 l/m 2 min 0 min 0,0 UV-I 338 W/m 7,7 km/h (2 Bft)
03.02.2014 12:52 6,1 C 4,4 C 80 % 1011,0 hPa 0,0 l/m 2 min 0 min 0,0 UV-I 343 W/m 5,1 km/h (1 Bft)
03.02.2014 12:54 6,2 C 4,4 C 79 % 1011,0 hPa 0,0 l/m 2 min 0 min 0,0 UV-I 341 W/m 18,0 km/h (3 Bft)
03.02.2014 12:56 6,1 C 4,4 C 79 % 1010,9 hPa 0,0 l/m 2 min 0 min 0,0 UV-I 343 W/m 20,6 km/h (4 Bft)
03.02.2014 12:58 6,2 C 4,4 C 79 % 1010,9 hPa 0,0 l/m 2 min 0 min 0,0 UV-I 348 W/m 12,9 km/h (3 Bft)
03.02.2014 13:00 6,3 C 4,4 C 79 % 1010,8 hPa 0,0 l/m 2 min 0 min 0,0 UV-I 346 W/m 15,4 km/h (3 Bft)
03.02.2014 13:02 6,4 C 4,4 C 79 % 1010,8 hPa 0,0 l/m 2 min 0 min 0,0 UV-I 345 W/m 12,9 km/h (3 Bft)
03.02.2014 13:04 6,4 C 4,4 C 79 % 1010,8 hPa 0,0 l/m 2 min 0 min 0,0 UV-I 334 W/m 10,3 km/h (2 Bft)
03.02.2014 13:06 6,4 C 4,4 C 78 % 1010,8 hPa 0,0 l/m 2 min 0 min 0,0 UV-I 343 W/m 7,7 km/h (2 Bft)
03.02.2014 13:08 6,4 C 4,4 C 79 % 1010,7 hPa 0,0 l/m 2 min 0 min 0,0 UV-I 311 W/m 7,7 km/h (2 Bft)
03.02.2014 13:10 6,4 C 5,0 C 79 % 1010,7 hPa 0,0 l/m 2 min 0 min 0,0 UV-I 320 W/m 10,3 km/h (2 Bft)
03.02.2014 13:12 6,5 C 4,4 C 79 % 1010,6 hPa 0,0 l/m 2 min 0 min 0,0 UV-I 311 W/m 20,6 km/h (4 Bft)
03.02.2014 13:14 6,5 C 5,0 C 79 % 1010,6 hPa 0,0 l/m 2 min 0 min 0,0 UV-I 315 W/m 12,9 km/h (3 Bft)
03.02.2014 13:16 6,4 C 4,4 C 79 % 1010,6 hPa 0,0 l/m 2 min 0 min 0,0 UV-I 341 W/m 20,6 km/h (4 Bft)
03.02.2014 13:18 6,4 C 4,4 C 79 % 1010,5 hPa 0,0 l/m 2 min 0 min 0,0 UV-I 301 W/m 12,9 km/h (3 Bft)
03.02.2014 13:20 6,3 C 4,4 C 79 % 1010,5 hPa 0,0 l/m 2 min 0 min 0,0 UV-I 332 W/m 10,3 km/h (2 Bft)
03.02.2014 13:22 6,3 C 4,4 C 79 % 1010,5 hPa 0,0 l/m 2 min 0 min 0,0 UV-I 322 W/m 12,9 km/h (3 Bft)
03.02.2014 13:24 6,4 C 4,4 C 79 % 1010,4 hPa 0,0 l/m 2 min 0 min 0,0 UV-I 330 W/m 7,7 km/h (2 Bft)
03.02.2014 13:26 6,4 C 5,0 C 79 % 1010,4 hPa 0,0 l/m 2 min 0 min 0,0 UV-I 338 W/m 10,3 km/h (2 Bft)
03.02.2014 13:28 6,4 C 5,0 C 79 % 1010,4 hPa 0,0 l/m 2 min 0 min 0,0 UV-I 339 W/m 12,9 km/h (3 Bft)
03.02.2014 13:30 6,4 C 5,0 C 79 % 1010,4 hPa 0,0 l/m 2 min 0 min 0,0 UV-I 244 W/m 10,3 km/h (2 Bft)
03.02.2014 13:32 6,4 C 5,0 C 79 % 1010,2 hPa 0,0 l/m 2 min 0 min 0,0 UV-I 332 W/m 12,9 km/h (3 Bft)
03.02.2014 13:34 6,6 C 5,0 C 79 % 1010,2 hPa 0,0 l/m 2 min 0 min 0,0 UV-I 336 W/m 10,3 km/h (2 Bft)
03.02.2014 13:36 6,7 C 5,0 C 79 % 1010,1 hPa 0,0 l/m 2 min 0 min 0,0 UV-I 334 W/m 15,4 km/h (3 Bft)
03.02.2014 13:38 6,8 C 5,0 C 79 % 1010,1 hPa 0,0 l/m 2 min 0 min 0,0 UV-I 330 W/m 12,9 km/h (3 Bft)
03.02.2014 13:40 6,7 C 5,0 C 78 % 1010,0 hPa 0,0 l/m 2 min 0 min 0,0 UV-I 330 W/m 15,4 km/h (3 Bft)
03.02.2014 13:42 6,6 C 5,0 C 78 % 1010,0 hPa 0,0 l/m 2 min 0 min 0,0 UV-I 329 W/m 15,4 km/h (3 Bft)
03.02.2014 13:44 6,5 C 5,0 C 78 % 1009,9 hPa 0,0 l/m 2 min 0 min 0,0 UV-I 301 W/m 20,6 km/h (4 Bft)
03.02.2014 13:46 6,7 C 5,0 C 79 % 1009,9 hPa 0,0 l/m 2 min 0 min 0,0 UV-I 308 W/m 18,0 km/h (3 Bft)
03.02.2014 13:48 6,7 C 5,0 C 79 % 1009,9 hPa 0,0 l/m 2 min 0 min 0,0 UV-I 316 W/m 15,4 km/h (3 Bft)
03.02.2014 13:50 6,8 C 5,0 C 79 % 1009,8 hPa 0,0 l/m 2 min 0 min 0,0 UV-I 322 W/m 15,4 km/h (3 Bft)
03.02.2014 13:52 6,8 C 5,0 C 78 % 1009,7 hPa 0,0 l/m 2 min 0 min 0,0 UV-I 271 W/m 15,4 km/h (3 Bft)
03.02.2014 13:54 6,7 C 5,0 C 78 % 1009,7 hPa 0,0 l/m 2 min 0 min 0,0 UV-I 221 W/m 12,9 km/h (3 Bft)
03.02.2014 13:56 6,7 C 5,0 C 79 % 1009,8 hPa 0,0 l/m 2 min 0 min 0,0 UV-I 308 W/m 15,4 km/h (3 Bft)
03.02.2014 13:58 6,6 C 5,0 C 79 % 1009,8 hPa 0,0 l/m 2 min 0 min 0,0 UV-I 311 W/m 7,7 km/h (2 Bft)
03.02.2014 14:00 6,7 C 5,0 C 79 % 1009,7 hPa 0,0 l/m 2 min 0 min 0,0 UV-I 323 W/m 12,9 km/h (3 Bft)
03.02.2014 14:02 6,7 C 5,6 C 80 % 1009,6 hPa 0,0 l/m 2 min 0 min 0,0 UV-I 315 W/m 15,4 km/h (3 Bft)
03.02.2014 14:04 6,7 C 5,6 C 79 % 1009,5 hPa 0,0 l/m 2 min 0 min 0,0 UV-I 309 W/m 18,0 km/h (3 Bft)
03.02.2014 14:06 6,7 C 5,6 C 79 % 1009,4 hPa 0,0 l/m 2 min 0 min 0,0 UV-I 304 W/m 12,9 km/h (3 Bft)
03.02.2014 14:08 6,8 C 5,6 C 79 % 1009,4 hPa 0,0 l/m 2 min 0 min 0,0 UV-I 302 W/m 10,3 km/h (2 Bft)
03.02.2014 14:10 6,8 C 5,6 C 79 % 1009,3 hPa 0,0 l/m 2 min 0 min 0,0 UV-I 299 W/m 18,0 km/h (3 Bft)
03.02.2014 14:12 6,7 C 5,6 C 79 % 1009,3 hPa 0,0 l/m 2 min 0 min 0,0 UV-I 301 W/m 12,9 km/h (3 Bft)
03.02.2014 14:14 6,8 C 5,6 C 79 % 1009,2 hPa 0,0 l/m 2 min 0 min 0,0 UV-I 301 W/m 18,0 km/h (3 Bft)
03.02.2014 14:16 6,8 C 5,6 C 79 % 1009,2 hPa 0,0 l/m 2 min 0 min 0,0 UV-I 251 W/m 18,0 km/h (3 Bft)
03.02.2014 14:18 6,8 C 5,6 C 79 % 1009,2 hPa 0,0 l/m 2 min 0 min 0,0 UV-I 297 W/m 12,9 km/h (3 Bft)
03.02.2014 14:20 6,8 C 5,6 C 80 % 1009,1 hPa 0,0 l/m 2 min 0 min 0,0 UV-I 294 W/m 18,0 km/h (3 Bft)
03.02.2014 14:22 6,7 C 5,6 C 79 % 1009,1 hPa 0,0 l/m 2 min 0 min 0,0 UV-I 271 W/m 23,2 km/h (4 Bft)
03.02.2014 14:24 6,6 C 5,6 C 79 % 1009,0 hPa 0,0 l/m 2 min 0 min 0,0 UV-I 272 W/m 12,9 km/h (3 Bft)
03.02.2014 14:26 6,7 C 5,6 C 80 % 1009,1 hPa 0,0 l/m 2 min 0 min 0,0 UV-I 287 W/m 25,7 km/h (4 Bft)
03.02.2014 14:28 6,7 C 5,6 C 79 % 1009,1 hPa 0,0 l/m 2 min 0 min 0,0 UV-I 272 W/m 23,2 km/h (4 Bft)
03.02.2014 14:30 6,6 C 5,0 C 79 % 1009,1 hPa 0,0 l/m 2 min 0 min 0,0 UV-I 230 W/m 18,0 km/h (3 Bft)
03.02.2014 14:32 6,6 C 5,0 C 80 % 1009,0 hPa 0,0 l/m 2 min 0 min 0,0 UV-I 279 W/m 18,0 km/h (3 Bft)
03.02.2014 14:34 6,6 C 5,6 C 80 % 1009,0 hPa 0,0 l/m 2 min 0 min 0,0 UV-I 278 W/m 12,9 km/h (3 Bft)
03.02.2014 14:36 6,7 C 5,6 C 80 % 1008,9 hPa 0,0 l/m 2 min 0 min 0,0 UV-I 271 W/m 12,9 km/h (3 Bft)
03.02.2014 14:38 6,8 C 5,6 C 80 % 1008,9 hPa 0,0 l/m 2 min 0 min 0,0 UV-I 271 W/m 12,9 km/h (3 Bft)
03.02.2014 14:40 6,7 C 5,6 C 79 % 1008,9 hPa 0,0 l/m 2 min 0 min 0,0 UV-I 269 W/m 20,6 km/h (4 Bft)
03.02.2014 14:42 6,7 C 5,6 C 79 % 1008,8 hPa 0,0 l/m 2 min 0 min 0,0 UV-I 267 W/m 20,6 km/h (4 Bft)
03.02.2014 14:44 6,7 C 5,6 C 80 % 1008,8 hPa 0,0 l/m 2 min 0 min 0,0 UV-I 264 W/m 12,9 km/h (3 Bft)
03.02.2014 14:46 6,7 C 5,6 C 79 % 1008,7 hPa 0,0 l/m 2 min 0 min 0,0 UV-I 260 W/m 18,0 km/h (3 Bft)
03.02.2014 14:48 6,7 C 5,6 C 79 % 1008,7 hPa 0,0 l/m 2 min 0 min 0,0 UV-I 258 W/m 10,3 km/h (2 Bft)
03.02.2014 14:50 6,8 C 5,6 C 79 % 1008,7 hPa 0,0 l/m 2 min 0 min 0,0 UV-I 243 W/m 10,3 km/h (2 Bft)
03.02.2014 14:52 6,8 C 5,6 C 79 % 1008,6 hPa 0,0 l/m 2 min 0 min 0,0 UV-I 253 W/m 10,3 km/h (2 Bft)
03.02.2014 14:54 6,8 C 5,6 C 79 % 1008,6 hPa 0,0 l/m 2 min 0 min 0,0 UV-I 251 W/m 2,6 km/h (1 Bft)
03.02.2014 14:56 6,9 C 5,6 C 79 % 1008,6 hPa 0,0 l/m 2 min 0 min 0,0 UV-I 211 W/m 5,1 km/h (1 Bft)
03.02.2014 14:58 6,9 C 5,6 C 79 % 1008,5 hPa 0,0 l/m 2 min 0 min 0,0 UV-I 250 W/m 10,3 km/h (2 Bft)
03.02.2014 15:00 6,9 C 5,6 C 79 % 1008,5 hPa 0,0 l/m 2 min 0 min 0,0 UV-I 244 W/m 18,0 km/h (3 Bft)
03.02.2014 15:02 6,8 C 5,0 C 78 % 1008,5 hPa 0,0 l/m 2 min 0 min 0,0 UV-I 227 W/m 18,0 km/h (3 Bft)
03.02.2014 15:04 6,7 C 5,0 C 79 % 1008,4 hPa 0,0 l/m 2 min 0 min 0,0 UV-I 236 W/m 12,9 km/h (3 Bft)
03.02.2014 15:06 6,6 C 5,0 C 79 % 1008,4 hPa 0,0 l/m 2 min 0 min 0,0 UV-I 227 W/m 18,0 km/h (3 Bft)
03.02.2014 15:08 6,5 C 5,0 C 79 % 1008,4 hPa 0,0 l/m 2 min 0 min 0,0 UV-I 214 W/m 15,4 km/h (3 Bft)
03.02.2014 15:10 6,4 C 5,0 C 79 % 1008,4 hPa 0,0 l/m 2 min 0 min 0,0 UV-I 199 W/m 18,0 km/h (3 Bft)
03.02.2014 15:12 6,4 C 5,0 C 80 % 1008,4 hPa 0,0 l/m 2 min 0 min 0,0 UV-I 209 W/m 18,0 km/h (3 Bft)
03.02.2014 15:14 6,3 C 5,0 C 80 % 1008,3 hPa 0,0 l/m 2 min 0 min 0,0 UV-I 206 W/m 23,2 km/h (4 Bft)
03.02.2014 15:16 6,4 C 5,0 C 80 % 1008,3 hPa 0,0 l/m 2 min 0 min 0,0 UV-I 204 W/m 18,0 km/h (3 Bft)
03.02.2014 15:18 6,4 C 5,0 C 80 % 1008,3 hPa 0,0 l/m 2 min 0 min 0,0 UV-I 199 W/m 18,0 km/h (3 Bft)
03.02.2014 15:20 6,4 C 5,0 C 80 % 1008,3 hPa 0,0 l/m 2 min 0 min 0,0 UV-I 197 W/m 15,4 km/h (3 Bft)
03.02.2014 15:22 6,4 C 5,0 C 80 % 1008,4 hPa 0,0 l/m 2 min 0 min 0,0 UV-I 199 W/m 18,0 km/h (3 Bft)
03.02.2014 15:24 6,4 C 5,0 C 80 % 1008,2 hPa 0,0 l/m 2 min 0 min 0,0 UV-I 192 W/m 18,0 km/h (3 Bft)
03.02.2014 15:26 6,4 C 5,0 C 80 % 1008,2 hPa 0,0 l/m 2 min 0 min 0,0 UV-I 193 W/m 15,4 km/h (3 Bft)
03.02.2014 15:28 6,4 C 5,0 C 80 % 1008,2 hPa 0,0 l/m 2 min 0 min 0,0 UV-I 190 W/m 18,0 km/h (3 Bft)
03.02.2014 15:30 6,4 C 5,0 C 80 % 1008,1 hPa 0,0 l/m 2 min 0 min 0,0 UV-I 141 W/m 12,9 km/h (3 Bft)
03.02.2014 15:32 6,4 C 5,0 C 80 % 1008,1 hPa 0,0 l/m 2 min 0 min 0,0 UV-I 160 W/m 12,9 km/h (3 Bft)
03.02.2014 15:34 6,4 C 5,0 C 80 % 1008,0 hPa 0,0 l/m 2 min 0 min 0,0 UV-I 169 W/m 10,3 km/h (2 Bft)
03.02.2014 15:36 6,4 C 5,0 C 80 % 1008,1 hPa 0,0 l/m 2 min 0 min 0,0 UV-I 172 W/m 12,9 km/h (3 Bft)
03.02.2014 15:38 6,4 C 5,0 C 80 % 1008,0 hPa 0,0 l/m 2 min 0 min 0,0 UV-I 171 W/m 7,7 km/h (2 Bft)
03.02.2014 15:40 6,4 C 5,0 C 80 % 1008,0 hPa 0,0 l/m 2 min 0 min 0,0 UV-I 165 W/m 18,0 km/h (3 Bft)
03.02.2014 15:42 6,3 C 5,0 C 80 % 1008,0 hPa 0,0 l/m 2 min 0 min 0,0 UV-I 151 W/m 10,3 km/h (2 Bft)
03.02.2014 15:44 6,3 C 4,4 C 81 % 1007,9 hPa 0,0 l/m 2 min 0 min 0,0 UV-I 144 W/m 12,9 km/h (3 Bft)
03.02.2014 15:46 6,2 C 4,4 C 81 % 1007,9 hPa 0,0 l/m 2 min 0 min 0,0 UV-I 141 W/m 10,3 km/h (2 Bft)
03.02.2014 15:48 6,2 C 4,4 C 81 % 1007,9 hPa 0,0 l/m 2 min 0 min 0,0 UV-I 142 W/m 12,9 km/h (3 Bft)
03.02.2014 15:50 6,2 C 4,4 C 81 % 1008,0 hPa 0,0 l/m 2 min 0 min 0,0 UV-I 139 W/m 15,4 km/h (3 Bft)
03.02.2014 15:52 6,1 C 4,4 C 81 % 1008,0 hPa 0,0 l/m 2 min 0 min 0,0 UV-I 127 W/m 15,4 km/h (3 Bft)
03.02.2014 15:54 6,1 C 4,4 C 81 % 1007,9 hPa 0,0 l/m 0 min 0 min 0,0 UV-I 107 W/m 15,4 km/h (3 Bft)
03.02.2014 15:56 6,0 C 4,4 C 82 % 1007,9 hPa 0,0 l/m 0 min 0 min 0,0 UV-I 104 W/m 15,4 km/h (3 Bft)
03.02.2014 15:58 5,9 C 4,4 C 82 % 1007,8 hPa 0,0 l/m 0 min 0 min 0,0 UV-I 100 W/m 18,0 km/h (3 Bft)
03.02.2014 16:00 5,9 C 4,4 C 82 % 1007,8 hPa 0,0 l/m 2 min 0 min 0,0 UV-I 105 W/m 12,9 km/h (3 Bft)
03.02.2014 16:02 5,9 C 4,4 C 82 % 1007,9 hPa 0,0 l/m 2 min 0 min 0,0 UV-I 111 W/m 15,4 km/h (3 Bft)
03.02.2014 16:04 5,8 C 4,4 C 82 % 1007,8 hPa 0,0 l/m 2 min 0 min 0,0 UV-I 107 W/m 15,4 km/h (3 Bft)
03.02.2014 16:06 5,8 C 4,4 C 82 % 1007,8 hPa 0,0 l/m 2 min 0 min 0,0 UV-I 95 W/m 10,3 km/h (2 Bft)
03.02.2014 16:08 5,8 C 3,9 C 82 % 1007,8 hPa 0,0 l/m 2 min 0 min 0,0 UV-I 95 W/m 18,0 km/h (3 Bft)
03.02.2014 16:10 5,7 C 3,9 C 82 % 1007,8 hPa 0,0 l/m 0 min 0 min 0,0 UV-I 72 W/m 18,0 km/h (3 Bft)
03.02.2014 16:12 5,7 C 3,9 C 82 % 1007,8 hPa 0,0 l/m 0 min 0 min 0,0 UV-I 51 W/m 12,9 km/h (3 Bft)
03.02.2014 16:14 5,7 C 3,9 C 83 % 1007,7 hPa 0,0 l/m 0 min 0 min 0,0 UV-I 44 W/m 10,3 km/h (2 Bft)
03.02.2014 16:16 5,6 C 3,9 C 83 % 1007,7 hPa 0,0 l/m 0 min 0 min 0,0 UV-I 42 W/m 15,4 km/h (3 Bft)
03.02.2014 16:18 5,6 C 3,9 C 83 % 1007,6 hPa 0,0 l/m 0 min 0 min 0,0 UV-I 40 W/m 5,1 km/h (1 Bft)
03.02.2014 16:20 5,5 C 3,9 C 83 % 1007,6 hPa 0,0 l/m 0 min 0 min 0,0 UV-I 40 W/m 20,6 km/h (4 Bft)
03.02.2014 16:22 5,5 C 3,9 C 84 % 1007,6 hPa 0,0 l/m 0 min 0 min 0,0 UV-I 39 W/m 15,4 km/h (3 Bft)
03.02.2014 16:24 5,4 C 3,9 C 83 % 1007,6 hPa 0,0 l/m 0 min 0 min 0,0 UV-I 39 W/m 23,2 km/h (4 Bft)
03.02.2014 16:26 5,4 C 3,9 C 83 % 1007,5 hPa 0,0 l/m 0 min 0 min 0,0 UV-I 35 W/m 30,9 km/h (5 Bft)
03.02.2014 16:28 5,3 C 3,9 C 83 % 1007,5 hPa 0,0 l/m 0 min 0 min 0,0 UV-I 33 W/m 25,7 km/h (4 Bft)
03.02.2014 16:30 5,3 C 3,9 C 83 % 1007,4 hPa 0,0 l/m 0 min 0 min 0,0 UV-I 32 W/m 20,6 km/h (4 Bft)
03.02.2014 16:32 5,2 C 3,9 C 83 % 1007,3 hPa 0,0 l/m 0 min 0 min 0,0 UV-I 33 W/m 18,0 km/h (3 Bft)
03.02.2014 16:34 5,2 C 3,3 C 83 % 1007,3 hPa 0,0 l/m 0 min 0 min 0,0 UV-I 32 W/m 18,0 km/h (3 Bft)
03.02.2014 16:36 5,1 C 3,3 C 84 % 1007,2 hPa 0,0 l/m 0 min 0 min 0,0 UV-I 33 W/m 18,0 km/h (3 Bft)
03.02.2014 16:38 5,1 C 3,3 C 84 % 1007,2 hPa 0,0 l/m 0 min 0 min 0,0 UV-I 33 W/m 18,0 km/h (3 Bft)
03.02.2014 16:40 5,0 C 3,3 C 84 % 1007,2 hPa 0,0 l/m 0 min 0 min 0,0 UV-I 30 W/m 18,0 km/h (3 Bft)
03.02.2014 16:42 4,9 C 3,3 C 84 % 1007,2 hPa 0,0 l/m 0 min 0 min 0,0 UV-I 30 W/m 10,3 km/h (2 Bft)
03.02.2014 16:44 4,9 C 3,3 C 84 % 1007,2 hPa 0,0 l/m 0 min 0 min 0,0 UV-I 30 W/m 12,9 km/h (3 Bft)
03.02.2014 16:46 4,8 C 3,3 C 84 % 1007,2 hPa 0,0 l/m 0 min 0 min 0,0 UV-I 28 W/m 10,3 km/h (2 Bft)
03.02.2014 16:48 4,8 C 3,3 C 84 % 1007,2 hPa 0,0 l/m 0 min 0 min 0,0 UV-I 28 W/m 20,6 km/h (4 Bft)
03.02.2014 16:50 4,8 C 3,3 C 85 % 1007,2 hPa 0,0 l/m 0 min 0 min 0,0 UV-I 28 W/m 15,4 km/h (3 Bft)
03.02.2014 16:52 4,7 C 3,3 C 85 % 1007,2 hPa 0,0 l/m 0 min 0 min 0,0 UV-I 28 W/m 15,4 km/h (3 Bft)
03.02.2014 16:54 4,7 C 3,3 C 85 % 1007,2 hPa 0,0 l/m 0 min 0 min 0,0 UV-I 30 W/m 12,9 km/h (3 Bft)
03.02.2014 16:56 4,7 C 3,3 C 85 % 1007,2 hPa 0,0 l/m 0 min 0 min 0,0 UV-I 32 W/m 7,7 km/h (2 Bft)
03.02.2014 16:58 4,7 C 2,8 C 85 % 1007,2 hPa 0,0 l/m 2 min 0 min 0,0 UV-I 32 W/m 0,0 km/h (0 Bft)
03.02.2014 17:00 4,6 C 2,8 C 85 % 1007,2 hPa 0,0 l/m 2 min 0 min 0,0 UV-I 33 W/m 5,1 km/h (1 Bft)
03.02.2014 17:02 4,6 C 2,8 C 85 % 1007,2 hPa 0,0 l/m 2 min 0 min 0,0 UV-I 32 W/m 7,7 km/h (2 Bft)
03.02.2014 17:04 4,6 C 2,8 C 85 % 1007,2 hPa 0,0 l/m 2 min 0 min 0,0 UV-I 30 W/m 0,0 km/h (0 Bft)
03.02.2014 17:06 4,6 C 2,8 C 86 % 1007,1 hPa 0,0 l/m 2 min 0 min 0,0 UV-I 28 W/m 12,9 km/h (3 Bft)
03.02.2014 17:08 4,6 C 2,8 C 86 % 1007,1 hPa 0,0 l/m 2 min 0 min 0,0 UV-I 28 W/m 10,3 km/h (2 Bft)
03.02.2014 17:10 4,6 C 2,8 C 86 % 1007,1 hPa 0,0 l/m 2 min 0 min 0,0 UV-I 25 W/m 2,6 km/h (1 Bft)
03.02.2014 17:12 4,6 C 2,8 C 86 % 1007,1 hPa 0,0 l/m 2 min 0 min 0,0 UV-I 21 W/m 10,3 km/h (2 Bft)
03.02.2014 17:14 4,6 C 2,8 C 86 % 1006,9 hPa 0,0 l/m 0 min 0 min 0,0 UV-I 18 W/m 5,1 km/h (1 Bft)
03.02.2014 17:16 4,6 C 2,8 C 86 % 1006,9 hPa 0,0 l/m 0 min 0 min 0,0 UV-I 14 W/m 12,9 km/h (3 Bft)
03.02.2014 17:18 4,6 C 3,3 C 86 % 1007,0 hPa 0,0 l/m 0 min 0 min 0,0 UV-I 12 W/m 7,7 km/h (2 Bft)
03.02.2014 17:20 4,6 C 3,3 C 86 % 1006,9 hPa 0,0 l/m 0 min 0 min 0,0 UV-I 12 W/m 10,3 km/h (2 Bft)
03.02.2014 17:22 4,6 C 3,3 C 86 % 1007,0 hPa 0,0 l/m 0 min 0 min 0,0 UV-I 11 W/m 18,0 km/h (3 Bft)
03.02.2014 17:24 4,6 C 3,3 C 86 % 1006,9 hPa 0,0 l/m 0 min 0 min 0,0 UV-I 11 W/m 10,3 km/h (2 Bft)
03.02.2014 17:26 4,6 C 3,3 C 86 % 1006,8 hPa 0,0 l/m 0 min 0 min 0,0 UV-I 11 W/m 10,3 km/h (2 Bft)
03.02.2014 17:28 4,6 C 3,3 C 86 % 1006,9 hPa 0,0 l/m 0 min 0 min 0,0 UV-I 9 W/m 5,1 km/h (1 Bft)
03.02.2014 17:30 4,6 C 3,3 C 86 % 1006,8 hPa 0,0 l/m 0 min 0 min 0,0 UV-I 9 W/m 2,6 km/h (1 Bft)
03.02.2014 17:32 4,7 C 3,3 C 86 % 1006,9 hPa 0,0 l/m 0 min 0 min 0,0 UV-I 7 W/m 10,3 km/h (2 Bft)
03.02.2014 17:34 4,7 C 3,3 C 86 % 1006,8 hPa 0,0 l/m 0 min 0 min 0,0 UV-I 5 W/m 0,0 km/h (0 Bft)
03.02.2014 17:36 4,7 C 3,3 C 86 % 1006,9 hPa 0,0 l/m 0 min 0 min 0,0 UV-I 0 W/m 10,3 km/h (2 Bft)
03.02.2014 17:38 4,7 C 3,3 C 86 % 1006,9 hPa 0,0 l/m 0 min 0 min 0,0 UV-I 0 W/m 12,9 km/h (3 Bft)
03.02.2014 17:40 4,7 C 3,3 C 86 % 1007,0 hPa 0,0 l/m 0 min 0 min 0,0 UV-I 0 W/m 10,3 km/h (2 Bft)
03.02.2014 17:42 4,7 C 3,3 C 86 % 1007,0 hPa 0,0 l/m 0 min 0 min 0,0 UV-I 0 W/m 12,9 km/h (3 Bft)
03.02.2014 17:44 4,7 C 3,3 C 86 % 1007,0 hPa 0,0 l/m 0 min 0 min 0,0 UV-I 0 W/m 10,3 km/h (2 Bft)
03.02.2014 17:46 4,7 C 3,3 C 86 % 1007,0 hPa 0,0 l/m 0 min 0 min 0,0 UV-I 0 W/m 10,3 km/h (2 Bft)
03.02.2014 17:48 4,8 C 3,3 C 86 % 1007,0 hPa 0,0 l/m 0 min 0 min 0,0 UV-I 0 W/m 10,3 km/h (2 Bft)
03.02.2014 17:50 4,8 C 3,3 C 86 % 1007,1 hPa 0,0 l/m 0 min 0 min 0,0 UV-I 0 W/m 20,6 km/h (4 Bft)
03.02.2014 17:52 4,8 C 3,3 C 86 % 1007,0 hPa 0,0 l/m 0 min 0 min 0,0 UV-I 0 W/m 20,6 km/h (4 Bft)
03.02.2014 17:54 4,8 C 3,3 C 86 % 1007,0 hPa 0,0 l/m 0 min 0 min 0,0 UV-I 0 W/m 12,9 km/h (3 Bft)
03.02.2014 17:56 4,8 C 3,3 C 86 % 1007,0 hPa 0,0 l/m 0 min 0 min 0,0 UV-I 0 W/m 15,4 km/h (3 Bft)
03.02.2014 17:58 4,8 C 3,3 C 86 % 1007,0 hPa 0,0 l/m 0 min 0 min 0,0 UV-I 0 W/m 15,4 km/h (3 Bft)
03.02.2014 18:00 4,8 C 3,3 C 85 % 1007,1 hPa 0,0 l/m 0 min 0 min 0,0 UV-I 0 W/m 15,4 km/h (3 Bft)
03.02.2014 18:02 4,9 C 3,3 C 85 % 1007,1 hPa 0,0 l/m 0 min 0 min 0,0 UV-I 0 W/m 10,3 km/h (2 Bft)
03.02.2014 18:04 4,9 C 3,3 C 85 % 1007,1 hPa 0,0 l/m 0 min 0 min 0,0 UV-I 0 W/m 12,9 km/h (3 Bft)
03.02.2014 18:06 4,9 C 3,3 C 85 % 1007,2 hPa 0,0 l/m 0 min 0 min 0,0 UV-I 0 W/m 23,2 km/h (4 Bft)
03.02.2014 18:08 4,9 C 3,3 C 85 % 1007,2 hPa 0,0 l/m 0 min 0 min 0,0 UV-I 0 W/m 25,7 km/h (4 Bft)
03.02.2014 18:10 4,9 C 3,3 C 85 % 1007,1 hPa 0,0 l/m 0 min 0 min 0,0 UV-I 0 W/m 23,2 km/h (4 Bft)
03.02.2014 18:12 4,9 C 3,3 C 85 % 1007,2 hPa 0,0 l/m 0 min 0 min 0,0 UV-I 0 W/m 18,0 km/h (3 Bft)
03.02.2014 18:14 4,9 C 3,3 C 85 % 1007,1 hPa 0,0 l/m 0 min 0 min 0,0 UV-I 0 W/m 10,3 km/h (2 Bft)
03.02.2014 18:16 4,9 C 3,3 C 85 % 1007,1 hPa 0,0 l/m 0 min 0 min 0,0 UV-I 0 W/m 23,2 km/h (4 Bft)
03.02.2014 18:18 4,9 C 3,3 C 84 % 1007,1 hPa 0,0 l/m 0 min 0 min 0,0 UV-I 0 W/m 30,9 km/h (5 Bft)
03.02.2014 18:20 4,9 C 3,3 C 84 % 1007,2 hPa 0,0 l/m 0 min 0 min 0,0 UV-I 0 W/m 20,6 km/h (4 Bft)
03.02.2014 18:22 4,9 C 3,3 C 84 % 1007,1 hPa 0,0 l/m 0 min 0 min 0,0 UV-I 0 W/m 23,2 km/h (4 Bft)
03.02.2014 18:24 4,9 C 3,3 C 84 % 1007,2 hPa 0,0 l/m 0 min 0 min 0,0 UV-I 0 W/m 15,4 km/h (3 Bft)
03.02.2014 18:26 4,9 C 3,3 C 84 % 1007,1 hPa 0,0 l/m 0 min 0 min 0,0 UV-I 0 W/m 23,2 km/h (4 Bft)
03.02.2014 18:28 4,9 C 3,3 C 84 % 1007,1 hPa 0,0 l/m 0 min 0 min 0,0 UV-I 0 W/m 23,2 km/h (4 Bft)
03.02.2014 18:30 4,9 C 3,3 C 84 % 1007,1 hPa 0,0 l/m 0 min 0 min 0,0 UV-I 0 W/m 25,7 km/h (4 Bft)
03.02.2014 18:32 4,8 C 3,3 C 84 % 1007,1 hPa 0,0 l/m 0 min 0 min 0,0 UV-I 0 W/m 23,2 km/h (4 Bft)
03.02.2014 18:34 4,8 C 3,3 C 84 % 1007,1 hPa 0,0 l/m 0 min 0 min 0,0 UV-I 0 W/m 18,0 km/h (3 Bft)
03.02.2014 18:36 4,8 C 3,3 C 84 % 1007,1 hPa 0,0 l/m 0 min 0 min 0,0 UV-I 0 W/m 20,6 km/h (4 Bft)
03.02.2014 18:38 4,8 C 3,3 C 84 % 1007,1 hPa 0,0 l/m 0 min 0 min 0,0 UV-I 0 W/m 7,7 km/h (2 Bft)
03.02.2014 18:40 4,8 C 3,3 C 84 % 1007,1 hPa 0,0 l/m 0 min 0 min 0,0 UV-I 0 W/m 15,4 km/h (3 Bft)
03.02.2014 18:42 4,8 C 3,3 C 84 % 1007,0 hPa 0,0 l/m 0 min 0 min 0,0 UV-I 0 W/m 15,4 km/h (3 Bft)
03.02.2014 18:44 4,8 C 3,3 C 84 % 1007,0 hPa 0,0 l/m 0 min 0 min 0,0 UV-I 0 W/m 18,0 km/h (3 Bft)
03.02.2014 18:46 4,8 C 3,3 C 85 % 1007,0 hPa 0,0 l/m 0 min 0 min 0,0 UV-I 0 W/m 23,2 km/h (4 Bft)
03.02.2014 18:48 4,7 C 3,3 C 85 % 1007,0 hPa 0,0 l/m 0 min 0 min 0,0 UV-I 0 W/m 23,2 km/h (4 Bft)
03.02.2014 18:50 4,7 C 3,3 C 85 % 1006,9 hPa 0,0 l/m 0 min 0 min 0,0 UV-I 0 W/m 20,6 km/h (4 Bft)
03.02.2014 18:52 4,8 C 3,3 C 85 % 1007,0 hPa 0,0 l/m 0 min 0 min 0,0 UV-I 0 W/m 28,3 km/h (4 Bft)
03.02.2014 18:54 4,8 C 3,3 C 85 % 1007,0 hPa 0,0 l/m 0 min 0 min 0,0 UV-I 0 W/m 12,9 km/h (3 Bft)
03.02.2014 18:56 4,8 C 3,3 C 84 % 1006,8 hPa 0,0 l/m 0 min 0 min 0,0 UV-I 0 W/m 20,6 km/h (4 Bft)
03.02.2014 18:58 4,8 C 3,3 C 84 % 1006,9 hPa 0,0 l/m 0 min 0 min 0,0 UV-I 0 W/m 23,2 km/h (4 Bft)
03.02.2014 19:00 4,8 C 3,3 C 84 % 1006,8 hPa 0,0 l/m 0 min 0 min 0,0 UV-I 0 W/m 20,6 km/h (4 Bft)
03.02.2014 19:02 4,8 C 3,3 C 84 % 1006,9 hPa 0,0 l/m 0 min 0 min 0,0 UV-I 0 W/m 15,4 km/h (3 Bft)
03.02.2014 19:04 4,9 C 3,3 C 84 % 1006,8 hPa 0,0 l/m 0 min 0 min 0,0 UV-I 0 W/m 18,0 km/h (3 Bft)
03.02.2014 19:06 4,9 C 3,3 C 84 % 1006,8 hPa 0,0 l/m 0 min 0 min 0,0 UV-I 0 W/m 12,9 km/h (3 Bft)
03.02.2014 19:08 4,9 C 3,3 C 84 % 1006,8 hPa 0,0 l/m 0 min 0 min 0,0 UV-I 0 W/m 20,6 km/h (4 Bft)
03.02.2014 19:10 4,9 C 3,3 C 84 % 1006,8 hPa 0,0 l/m 0 min 0 min 0,0 UV-I 0 W/m 12,9 km/h (3 Bft)
03.02.2014 19:12 4,8 C 3,3 C 84 % 1006,7 hPa 0,0 l/m 0 min 0 min 0,0 UV-I 0 W/m 18,0 km/h (3 Bft)
03.02.2014 19:14 4,8 C 3,3 C 84 % 1006,7 hPa 0,0 l/m 0 min 0 min 0,0 UV-I 0 W/m 10,3 km/h (2 Bft)
03.02.2014 19:16 4,8 C 3,3 C 84 % 1006,7 hPa 0,0 l/m 0 min 0 min 0,0 UV-I 0 W/m 2,6 km/h (1 Bft)
03.02.2014 19:18 4,8 C 3,3 C 84 % 1006,7 hPa 0,0 l/m 0 min 0 min 0,0 UV-I 0 W/m 12,9 km/h (3 Bft)
03.02.2014 19:20 4,8 C 3,3 C 84 % 1006,7 hPa 0,0 l/m 0 min 0 min 0,0 UV-I 0 W/m 12,9 km/h (3 Bft)
03.02.2014 19:22 4,8 C 3,3 C 85 % 1006,7 hPa 0,0 l/m 0 min 0 min 0,0 UV-I 0 W/m 10,3 km/h (2 Bft)
03.02.2014 19:24 4,8 C 3,3 C 85 % 1006,6 hPa 0,0 l/m 0 min 0 min 0,0 UV-I 0 W/m 12,9 km/h (3 Bft)
03.02.2014 19:26 4,8 C 3,3 C 85 % 1006,6 hPa 0,0 l/m 0 min 0 min 0,0 UV-I 0 W/m 12,9 km/h (3 Bft)
03.02.2014 19:28 4,8 C 3,3 C 85 % 1006,6 hPa 0,0 l/m 0 min 0 min 0,0 UV-I 0 W/m 15,4 km/h (3 Bft)
03.02.2014 19:30 4,8 C 3,3 C 85 % 1006,5 hPa 0,0 l/m 0 min 0 min 0,0 UV-I 0 W/m 12,9 km/h (3 Bft)
03.02.2014 19:32 4,8 C 3,3 C 85 % 1006,4 hPa 0,0 l/m 0 min 0 min 0,0 UV-I 0 W/m 12,9 km/h (3 Bft)
03.02.2014 19:34 4,8 C 3,3 C 85 % 1006,4 hPa 0,0 l/m 0 min 0 min 0,0 UV-I 0 W/m 18,0 km/h (3 Bft)
03.02.2014 19:36 4,8 C 3,3 C 85 % 1006,4 hPa 0,0 l/m 0 min 0 min 0,0 UV-I 0 W/m 15,4 km/h (3 Bft)
03.02.2014 19:38 4,8 C 3,3 C 85 % 1006,4 hPa 0,0 l/m 0 min 0 min 0,0 UV-I 0 W/m 10,3 km/h (2 Bft)
03.02.2014 19:40 4,8 C 3,3 C 85 % 1006,5 hPa 0,0 l/m 0 min 0 min 0,0 UV-I 0 W/m 12,9 km/h (3 Bft)
03.02.2014 19:42 4,8 C 3,3 C 85 % 1006,5 hPa 0,0 l/m 0 min 0 min 0,0 UV-I 0 W/m 7,7 km/h (2 Bft)
03.02.2014 19:44 4,7 C 3,3 C 85 % 1006,5 hPa 0,0 l/m 0 min 0 min 0,0 UV-I 0 W/m 12,9 km/h (3 Bft)
03.02.2014 19:46 4,7 C 3,3 C 85 % 1006,5 hPa 0,0 l/m 0 min 0 min 0,0 UV-I 0 W/m 7,7 km/h (2 Bft)
03.02.2014 19:48 4,7 C 3,3 C 85 % 1006,5 hPa 0,0 l/m 0 min 0 min 0,0 UV-I 0 W/m 12,9 km/h (3 Bft)
03.02.2014 19:50 4,7 C 3,3 C 86 % 1006,5 hPa 0,0 l/m 0 min 0 min 0,0 UV-I 0 W/m 10,3 km/h (2 Bft)
03.02.2014 19:52 4,7 C 3,3 C 86 % 1006,4 hPa 0,0 l/m 0 min 0 min 0,0 UV-I 0 W/m 18,0 km/h (3 Bft)
03.02.2014 19:54 4,7 C 3,3 C 86 % 1006,5 hPa 0,0 l/m 0 min 0 min 0,0 UV-I 0 W/m 20,6 km/h (4 Bft)
03.02.2014 19:56 4,7 C 3,3 C 86 % 1006,4 hPa 0,0 l/m 0 min 0 min 0,0 UV-I 0 W/m 18,0 km/h (3 Bft)
03.02.2014 19:58 4,7 C 3,3 C 86 % 1006,3 hPa 0,0 l/m 0 min 0 min 0,0 UV-I 0 W/m 20,6 km/h (4 Bft)
03.02.2014 20:00 4,7 C 3,3 C 86 % 1006,3 hPa 0,0 l/m 0 min 0 min 0,0 UV-I 0 W/m 18,0 km/h (3 Bft)
03.02.2014 20:02 4,7 C 3,3 C 86 % 1006,3 hPa 0,0 l/m 0 min 0 min 0,0 UV-I 0 W/m 15,4 km/h (3 Bft)
03.02.2014 20:04 4,7 C 3,3 C 86 % 1006,3 hPa 0,0 l/m 0 min 0 min 0,0 UV-I 0 W/m 18,0 km/h (3 Bft)
03.02.2014 20:06 4,7 C 3,3 C 86 % 1006,3 hPa 0,0 l/m 0 min 0 min 0,0 UV-I 0 W/m 15,4 km/h (3 Bft)
03.02.2014 20:08 4,7 C 3,3 C 87 % 1006,4 hPa 0,0 l/m 0 min 0 min 0,0 UV-I 0 W/m 18,0 km/h (3 Bft)
03.02.2014 20:10 4,7 C 3,3 C 87 % 1006,2 hPa 0,0 l/m 0 min 0 min 0,0 UV-I 0 W/m 12,9 km/h (3 Bft)
03.02.2014 20:12 4,7 C 3,3 C 87 % 1006,2 hPa 0,0 l/m 0 min 0 min 0,0 UV-I 0 W/m 12,9 km/h (3 Bft)
03.02.2014 20:14 4,7 C 3,3 C 87 % 1006,2 hPa 0,0 l/m 0 min 0 min 0,0 UV-I 0 W/m 12,9 km/h (3 Bft)
03.02.2014 20:16 4,6 C 3,3 C 87 % 1006,2 hPa 0,0 l/m 0 min 0 min 0,0 UV-I 0 W/m 15,4 km/h (3 Bft)
03.02.2014 20:18 4,6 C 3,3 C 87 % 1006,2 hPa 0,0 l/m 0 min 0 min 0,0 UV-I 0 W/m 15,4 km/h (3 Bft)
03.02.2014 20:20 4,6 C 3,3 C 87 % 1006,2 hPa 0,0 l/m 0 min 0 min 0,0 UV-I 0 W/m 18,0 km/h (3 Bft)
03.02.2014 20:22 4,6 C 3,3 C 87 % 1006,2 hPa 0,0 l/m 0 min 0 min 0,0 UV-I 0 W/m 18,0 km/h (3 Bft)
03.02.2014 20:24 4,6 C 3,3 C 87 % 1006,2 hPa 0,0 l/m 0 min 0 min 0,0 UV-I 0 W/m 18,0 km/h (3 Bft)
03.02.2014 20:26 4,6 C 3,3 C 87 % 1006,2 hPa 0,0 l/m 0 min 0 min 0,0 UV-I 0 W/m 23,2 km/h (4 Bft)
03.02.2014 20:28 4,6 C 3,3 C 87 % 1006,2 hPa 0,0 l/m 0 min 0 min 0,0 UV-I 0 W/m 18,0 km/h (3 Bft)
03.02.2014 20:30 4,6 C 3,3 C 87 % 1006,2 hPa 0,0 l/m 0 min 0 min 0,0 UV-I 0 W/m 12,9 km/h (3 Bft)
03.02.2014 20:32 4,6 C 3,3 C 87 % 1006,2 hPa 0,0 l/m 0 min 0 min 0,0 UV-I 0 W/m 28,3 km/h (4 Bft)
03.02.2014 20:34 4,6 C 3,3 C 87 % 1006,1 hPa 0,0 l/m 0 min 0 min 0,0 UV-I 0 W/m 18,0 km/h (3 Bft)
03.02.2014 20:36 4,6 C 3,3 C 87 % 1006,1 hPa 0,0 l/m 0 min 0 min 0,0 UV-I 0 W/m 25,7 km/h (4 Bft)
03.02.2014 20:38 4,6 C 3,3 C 87 % 1006,1 hPa 0,0 l/m 0 min 0 min 0,0 UV-I 0 W/m 20,6 km/h (4 Bft)
03.02.2014 20:40 4,6 C 3,3 C 87 % 1006,1 hPa 0,0 l/m 0 min 0 min 0,0 UV-I 0 W/m 12,9 km/h (3 Bft)
03.02.2014 20:42 4,6 C 3,3 C 87 % 1006,1 hPa 0,0 l/m 0 min 0 min 0,0 UV-I 0 W/m 15,4 km/h (3 Bft)
03.02.2014 20:44 4,6 C 3,3 C 87 % 1006,1 hPa 0,0 l/m 0 min 0 min 0,0 UV-I 0 W/m 15,4 km/h (3 Bft)
03.02.2014 20:46 4,6 C 3,3 C 87 % 1006,1 hPa 0,0 l/m 0 min 0 min 0,0 UV-I 0 W/m 23,2 km/h (4 Bft)
03.02.2014 20:48 4,6 C 3,3 C 87 % 1006,1 hPa 0,0 l/m 0 min 0 min 0,0 UV-I 0 W/m 12,9 km/h (3 Bft)
03.02.2014 20:50 4,6 C 3,3 C 87 % 1006,1 hPa 0,0 l/m 0 min 0 min 0,0 UV-I 0 W/m 12,9 km/h (3 Bft)
03.02.2014 20:52 4,6 C 3,3 C 87 % 1006,2 hPa 0,0 l/m 0 min 0 min 0,0 UV-I 0 W/m 18,0 km/h (3 Bft)
03.02.2014 20:54 4,6 C 3,3 C 87 % 1006,1 hPa 0,0 l/m 0 min 0 min 0,0 UV-I 0 W/m 25,7 km/h (4 Bft)
03.02.2014 20:56 4,6 C 3,3 C 87 % 1006,1 hPa 0,0 l/m 0 min 0 min 0,0 UV-I 0 W/m 12,9 km/h (3 Bft)
03.02.2014 20:58 4,6 C 3,3 C 87 % 1006,1 hPa 0,0 l/m 0 min 0 min 0,0 UV-I 0 W/m 18,0 km/h (3 Bft)
03.02.2014 21:00 4,6 C 3,3 C 87 % 1006,0 hPa 0,0 l/m 0 min 0 min 0,0 UV-I 0 W/m 15,4 km/h (3 Bft)
03.02.2014 21:02 4,6 C 3,3 C 87 % 1006,0 hPa 0,0 l/m 0 min 0 min 0,0 UV-I 0 W/m 15,4 km/h (3 Bft)
03.02.2014 21:04 4,6 C 3,3 C 87 % 1006,0 hPa 0,0 l/m 0 min 0 min 0,0 UV-I 0 W/m 25,7 km/h (4 Bft)
03.02.2014 21:06 4,5 C 3,3 C 87 % 1005,9 hPa 0,0 l/m 0 min 0 min 0,0 UV-I 0 W/m 15,4 km/h (3 Bft)
03.02.2014 21:08 4,6 C 3,3 C 87 % 1005,9 hPa 0,0 l/m 0 min 0 min 0,0 UV-I 0 W/m 18,0 km/h (3 Bft)
03.02.2014 21:10 4,5 C 3,3 C 87 % 1005,8 hPa 0,0 l/m 0 min 0 min 0,0 UV-I 0 W/m 25,7 km/h (4 Bft)
03.02.2014 21:12 4,5 C 3,3 C 87 % 1005,8 hPa 0,0 l/m 0 min 0 min 0,0 UV-I 0 W/m 20,6 km/h (4 Bft)
03.02.2014 21:14 4,5 C 3,3 C 87 % 1005,8 hPa 0,0 l/m 0 min 0 min 0,0 UV-I 0 W/m 23,2 km/h (4 Bft)
03.02.2014 21:16 4,6 C 3,3 C 87 % 1005,8 hPa 0,0 l/m 0 min 0 min 0,0 UV-I 0 W/m 15,4 km/h (3 Bft)
03.02.2014 21:18 4,6 C 3,3 C 87 % 1005,8 hPa 0,0 l/m 0 min 0 min 0,0 UV-I 0 W/m 20,6 km/h (4 Bft)
03.02.2014 21:20 4,6 C 3,3 C 87 % 1005,7 hPa 0,0 l/m 0 min 0 min 0,0 UV-I 0 W/m 28,3 km/h (4 Bft)
03.02.2014 21:22 4,6 C 3,3 C 87 % 1005,9 hPa 0,0 l/m 0 min 0 min 0,0 UV-I 0 W/m 15,4 km/h (3 Bft)
03.02.2014 21:24 4,6 C 3,3 C 87 % 1005,8 hPa 0,0 l/m 0 min 0 min 0,0 UV-I 0 W/m 18,0 km/h (3 Bft)
03.02.2014 21:26 4,5 C 3,3 C 87 % 1005,8 hPa 0,0 l/m 0 min 0 min 0,0 UV-I 0 W/m 15,4 km/h (3 Bft)
03.02.2014 21:28 4,6 C 3,3 C 87 % 1005,7 hPa 0,0 l/m 0 min 0 min 0,0 UV-I 0 W/m 12,9 km/h (3 Bft)
03.02.2014 21:30 4,5 C 3,3 C 87 % 1005,8 hPa 0,0 l/m 0 min 0 min 0,0 UV-I 0 W/m 20,6 km/h (4 Bft)
03.02.2014 21:32 4,5 C 3,3 C 87 % 1005,7 hPa 0,0 l/m 0 min 0 min 0,0 UV-I 0 W/m 15,4 km/h (3 Bft)
03.02.2014 21:34 4,5 C 3,3 C 87 % 1005,8 hPa 0,0 l/m 0 min 0 min 0,0 UV-I 0 W/m 10,3 km/h (2 Bft)
03.02.2014 21:36 4,5 C 3,3 C 87 % 1005,8 hPa 0,0 l/m 0 min 0 min 0,0 UV-I 0 W/m 20,6 km/h (4 Bft)
03.02.2014 21:38 4,4 C 3,3 C 87 % 1005,9 hPa 0,0 l/m 0 min 0 min 0,0 UV-I 0 W/m 15,4 km/h (3 Bft)
03.02.2014 21:40 4,4 C 3,3 C 87 % 1005,9 hPa 0,0 l/m 0 min 0 min 0,0 UV-I 0 W/m 12,9 km/h (3 Bft)
03.02.2014 21:42 4,4 C 3,3 C 87 % 1005,9 hPa 0,0 l/m 0 min 0 min 0,0 UV-I 0 W/m 12,9 km/h (3 Bft)
03.02.2014 21:44 4,4 C 3,3 C 87 % 1005,8 hPa 0,0 l/m 0 min 0 min 0,0 UV-I 0 W/m 18,0 km/h (3 Bft)
03.02.2014 21:46 4,4 C 3,3 C 87 % 1005,8 hPa 0,0 l/m 0 min 0 min 0,0 UV-I 0 W/m 10,3 km/h (2 Bft)
03.02.2014 21:48 4,4 C 3,3 C 87 % 1005,9 hPa 0,0 l/m 0 min 0 min 0,0 UV-I 0 W/m 23,2 km/h (4 Bft)
03.02.2014 21:50 4,4 C 3,3 C 87 % 1005,8 hPa 0,0 l/m 0 min 0 min 0,0 UV-I 0 W/m 23,2 km/h (4 Bft)
03.02.2014 21:52 4,4 C 2,8 C 87 % 1005,9 hPa 0,0 l/m 0 min 0 min 0,0 UV-I 0 W/m 18,0 km/h (3 Bft)
03.02.2014 21:54 4,4 C 2,8 C 87 % 1005,8 hPa 0,0 l/m 0 min 0 min 0,0 UV-I 0 W/m 15,4 km/h (3 Bft)
03.02.2014 21:56 4,4 C 2,8 C 87 % 1005,9 hPa 0,0 l/m 0 min 0 min 0,0 UV-I 0 W/m 18,0 km/h (3 Bft)
03.02.2014 21:58 4,4 C 2,8 C 87 % 1005,9 hPa 0,0 l/m 0 min 0 min 0,0 UV-I 0 W/m 12,9 km/h (3 Bft)
03.02.2014 22:00 4,4 C 2,8 C 87 % 1005,8 hPa 0,0 l/m 0 min 0 min 0,0 UV-I 0 W/m 18,0 km/h (3 Bft)
03.02.2014 22:02 4,4 C 2,8 C 87 % 1005,8 hPa 0,0 l/m 0 min 0 min 0,0 UV-I 0 W/m 23,2 km/h (4 Bft)
03.02.2014 22:04 4,4 C 2,8 C 87 % 1005,8 hPa 0,0 l/m 0 min 0 min 0,0 UV-I 0 W/m 12,9 km/h (3 Bft)
03.02.2014 22:06 4,3 C 2,8 C 87 % 1005,7 hPa 0,0 l/m 0 min 0 min 0,0 UV-I 0 W/m 18,0 km/h (3 Bft)
03.02.2014 22:08 4,3 C 2,8 C 87 % 1005,7 hPa 0,0 l/m 0 min 0 min 0,0 UV-I 0 W/m 28,3 km/h (4 Bft)
03.02.2014 22:10 4,3 C 2,8 C 87 % 1005,8 hPa 0,0 l/m 0 min 0 min 0,0 UV-I 0 W/m 28,3 km/h (4 Bft)
03.02.2014 22:12 4,3 C 2,8 C 87 % 1005,8 hPa 0,0 l/m 0 min 0 min 0,0 UV-I 0 W/m 23,2 km/h (4 Bft)
03.02.2014 22:14 4,3 C 2,8 C 87 % 1005,8 hPa 0,0 l/m 0 min 0 min 0,0 UV-I 0 W/m 23,2 km/h (4 Bft)
03.02.2014 22:16 4,3 C 2,8 C 87 % 1005,7 hPa 0,0 l/m 0 min 0 min 0,0 UV-I 0 W/m 20,6 km/h (4 Bft)
03.02.2014 22:18 4,3 C 2,8 C 87 % 1005,8 hPa 0,0 l/m 0 min 0 min 0,0 UV-I 0 W/m 18,0 km/h (3 Bft)
03.02.2014 22:20 4,3 C 2,8 C 88 % 1005,7 hPa 0,0 l/m 0 min 0 min 0,0 UV-I 0 W/m 18,0 km/h (3 Bft)
03.02.2014 22:22 4,3 C 2,8 C 88 % 1005,8 hPa 0,0 l/m 0 min 0 min 0,0 UV-I 0 W/m 15,4 km/h (3 Bft)
03.02.2014 22:24 4,3 C 2,8 C 88 % 1005,8 hPa 0,0 l/m 0 min 0 min 0,0 UV-I 0 W/m 30,9 km/h (5 Bft)
03.02.2014 22:26 4,3 C 2,8 C 88 % 1005,7 hPa 0,0 l/m 0 min 0 min 0,0 UV-I 0 W/m 15,4 km/h (3 Bft)
03.02.2014 22:28 4,3 C 2,8 C 88 % 1005,6 hPa 0,0 l/m 0 min 0 min 0,0 UV-I 0 W/m 20,6 km/h (4 Bft)
03.02.2014 22:30 4,3 C 2,8 C 88 % 1005,6 hPa 0,0 l/m 0 min 0 min 0,0 UV-I 0 W/m 15,4 km/h (3 Bft)
03.02.2014 22:32 4,2 C 2,8 C 88 % 1005,7 hPa 0,0 l/m 0 min 0 min 0,0 UV-I 0 W/m 23,2 km/h (4 Bft)
03.02.2014 22:34 4,2 C 2,8 C 88 % 1005,6 hPa 0,0 l/m 0 min 0 min 0,0 UV-I 0 W/m 12,9 km/h (3 Bft)
03.02.2014 22:36 4,2 C 2,8 C 88 % 1005,6 hPa 0,0 l/m 0 min 0 min 0,0 UV-I 0 W/m 18,0 km/h (3 Bft)
03.02.2014 22:38 4,2 C 2,8 C 88 % 1005,6 hPa 0,0 l/m 0 min 0 min 0,0 UV-I 0 W/m 20,6 km/h (4 Bft)
03.02.2014 22:40 4,2 C 2,8 C 88 % 1005,7 hPa 0,0 l/m 0 min 0 min 0,0 UV-I 0 W/m 25,7 km/h (4 Bft)
03.02.2014 22:42 4,2 C 2,8 C 88 % 1005,6 hPa 0,0 l/m 0 min 0 min 0,0 UV-I 0 W/m 20,6 km/h (4 Bft)
03.02.2014 22:44 4,2 C 2,8 C 88 % 1005,7 hPa 0,0 l/m 0 min 0 min 0,0 UV-I 0 W/m 25,7 km/h (4 Bft)
03.02.2014 22:46 4,2 C 2,8 C 88 % 1005,7 hPa 0,0 l/m 0 min 0 min 0,0 UV-I 0 W/m 20,6 km/h (4 Bft)
03.02.2014 22:48 4,2 C 2,8 C 88 % 1005,7 hPa 0,0 l/m 0 min 0 min 0,0 UV-I 0 W/m 23,2 km/h (4 Bft)
03.02.2014 22:50 4,2 C 2,8 C 88 % 1005,7 hPa 0,0 l/m 0 min 0 min 0,0 UV-I 0 W/m 12,9 km/h (3 Bft)
03.02.2014 22:52 4,2 C 2,8 C 88 % 1005,7 hPa 0,0 l/m 0 min 0 min 0,0 UV-I 0 W/m 20,6 km/h (4 Bft)
03.02.2014 22:54 4,2 C 2,8 C 88 % 1005,7 hPa 0,0 l/m 0 min 0 min 0,0 UV-I 0 W/m 25,7 km/h (4 Bft)
03.02.2014 22:56 4,2 C 2,8 C 88 % 1005,7 hPa 0,0 l/m 0 min 0 min 0,0 UV-I 0 W/m 23,2 km/h (4 Bft)
03.02.2014 22:58 4,2 C 2,8 C 88 % 1005,6 hPa 0,0 l/m 0 min 0 min 0,0 UV-I 0 W/m 15,4 km/h (3 Bft)
03.02.2014 23:00 4,2 C 2,8 C 88 % 1005,7 hPa 0,0 l/m 0 min 0 min 0,0 UV-I 0 W/m 28,3 km/h (4 Bft)
03.02.2014 23:02 4,2 C 2,8 C 88 % 1005,6 hPa 0,0 l/m 0 min 0 min 0,0 UV-I 0 W/m 23,2 km/h (4 Bft)
03.02.2014 23:04 4,2 C 2,8 C 87 % 1005,7 hPa 0,0 l/m 0 min 0 min 0,0 UV-I 0 W/m 15,4 km/h (3 Bft)
03.02.2014 23:06 4,2 C 2,8 C 87 % 1005,7 hPa 0,0 l/m 0 min 0 min 0,0 UV-I 0 W/m 20,6 km/h (4 Bft)
03.02.2014 23:08 4,2 C 2,8 C 87 % 1005,7 hPa 0,0 l/m 0 min 0 min 0,0 UV-I 0 W/m 20,6 km/h (4 Bft)
03.02.2014 23:10 4,2 C 2,8 C 87 % 1005,7 hPa 0,0 l/m 0 min 0 min 0,0 UV-I 0 W/m 12,9 km/h (3 Bft)
03.02.2014 23:12 4,2 C 2,8 C 87 % 1005,7 hPa 0,0 l/m 0 min 0 min 0,0 UV-I 0 W/m 20,6 km/h (4 Bft)
03.02.2014 23:14 4,2 C 2,8 C 87 % 1005,7 hPa 0,0 l/m 0 min 0 min 0,0 UV-I 0 W/m 18,0 km/h (3 Bft)
03.02.2014 23:16 4,2 C 2,8 C 87 % 1005,8 hPa 0,0 l/m 0 min 0 min 0,0 UV-I 0 W/m 25,7 km/h (4 Bft)
03.02.2014 23:18 4,2 C 2,8 C 87 % 1005,7 hPa 0,0 l/m 0 min 0 min 0,0 UV-I 0 W/m 18,0 km/h (3 Bft)
03.02.2014 23:20 4,2 C 2,8 C 87 % 1005,8 hPa 0,0 l/m 0 min 0 min 0,0 UV-I 0 W/m 12,9 km/h (3 Bft)
03.02.2014 23:22 4,2 C 2,8 C 87 % 1005,8 hPa 0,0 l/m 0 min 0 min 0,0 UV-I 0 W/m 20,6 km/h (4 Bft)
03.02.2014 23:24 4,2 C 2,8 C 87 % 1005,7 hPa 0,0 l/m 0 min 0 min 0,0 UV-I 0 W/m 20,6 km/h (4 Bft)
03.02.2014 23:26 4,2 C 2,8 C 87 % 1005,7 hPa 0,0 l/m 0 min 0 min 0,0 UV-I 0 W/m 15,4 km/h (3 Bft)
03.02.2014 23:28 4,2 C 2,8 C 87 % 1005,7 hPa 0,0 l/m 0 min 0 min 0,0 UV-I 0 W/m 15,4 km/h (3 Bft)
03.02.2014 23:30 4,2 C 2,8 C 87 % 1005,7 hPa 0,0 l/m 0 min 0 min 0,0 UV-I 0 W/m 28,3 km/h (4 Bft)
03.02.2014 23:32 4,2 C 2,8 C 87 % 1005,7 hPa 0,0 l/m 0 min 0 min 0,0 UV-I 0 W/m 15,4 km/h (3 Bft)
03.02.2014 23:34 4,1 C 2,8 C 87 % 1005,6 hPa 0,0 l/m 0 min 0 min 0,0 UV-I 0 W/m 20,6 km/h (4 Bft)
03.02.2014 23:36 4,1 C 2,8 C 87 % 1005,6 hPa 0,0 l/m 0 min 0 min 0,0 UV-I 0 W/m 28,3 km/h (4 Bft)
03.02.2014 23:38 4,1 C 2,8 C 87 % 1005,6 hPa 0,0 l/m 0 min 0 min 0,0 UV-I 0 W/m 30,9 km/h (5 Bft)
03.02.2014 23:40 4,1 C 2,8 C 87 % 1005,5 hPa 0,0 l/m 0 min 0 min 0,0 UV-I 0 W/m 18,0 km/h (3 Bft)
03.02.2014 23:42 4,1 C 2,8 C 87 % 1005,5 hPa 0,0 l/m 0 min 0 min 0,0 UV-I 0 W/m 20,6 km/h (4 Bft)
03.02.2014 23:44 4,1 C 2,8 C 87 % 1005,5 hPa 0,0 l/m 0 min 0 min 0,0 UV-I 0 W/m 20,6 km/h (4 Bft)
03.02.2014 23:46 4,1 C 2,8 C 87 % 1005,6 hPa 0,0 l/m 0 min 0 min 0,0 UV-I 0 W/m 23,2 km/h (4 Bft)
03.02.2014 23:48 4,1 C 2,8 C 87 % 1005,7 hPa 0,0 l/m 0 min 0 min 0,0 UV-I 0 W/m 15,4 km/h (3 Bft)
03.02.2014 23:50 4,0 C 2,8 C 87 % 1005,7 hPa 0,0 l/m 0 min 0 min 0,0 UV-I 0 W/m 20,6 km/h (4 Bft)
03.02.2014 23:52 4,0 C 2,8 C 87 % 1005,7 hPa 0,0 l/m 0 min 0 min 0,0 UV-I 0 W/m 23,2 km/h (4 Bft)
03.02.2014 23:54 4,0 C 2,2 C 87 % 1005,6 hPa 0,0 l/m 0 min 0 min 0,0 UV-I 0 W/m 23,2 km/h (4 Bft)
03.02.2014 23:56 4,0 C 2,2 C 87 % 1005,6 hPa 0,0 l/m 0 min 0 min 0,0 UV-I 0 W/m 25,7 km/h (4 Bft)
03.02.2014 23:58 3,9 C 2,2 C 87 % 1005,6 hPa 0,0 l/m 0 min 0 min 0,0 UV-I 0 W/m 30,9 km/h (5 Bft)
_ Min-Zeit 08:28 08:28 13:06 23:40 - - - - - 00:00
Minimum _ -1,1 C -3,3 C 78 % 1005,5 hPa - - - - - 0,0 km/h (0 Bft)
_ Max-Zeit 14:56 14:02 03:44 00:10 10:08 09:28 00:00 00:00 12:58 16:26
Maximum _ 6,9 C 5,6 C 96 % 1016,9 hPa 0,2 l/m 2 min 0 min 0,0 UV-I 348 W/m 30,9 km/h
SO (5 Bft)
Durchschnitt _ 2,9 C 1,1 C 89 % 1011,3 hPa #0,2 l/m #6:52 h #0 min. 0,0 UV-I 186 W/m 9,4 km/h (2 Bft)
© 2014 W. Hausmann